GFSCGP_250_rhum_000.txt.gz
RH
15 15 14 14 13 13 13 12 13 14 16 22 28 29 36 32 34 32 32 32 23 20 24 28 25 27 26 23 24 25 26 26 28 34 44 54 56 57 60 60 61 66 63 58
16 16 16 16 15 14 14 15 17 20 25 31 39 38 35 32 30 24 22 23 24 27 32 32 31 31 29 30 26 23 25 34 44 52 58 68 75 75 71 69 68 63 61 58
18 18 18 19 17 16 16 18 20 20 24 26 24 21 20 20 20 19 22 27 31 33 35 28 26 27 26 22 24 40 51 54 56 64 71 71 68 66 62 58 51 48 53 59
18 19 19 19 18 16 16 16 16 17 17 16 17 19 20 20 19 22 26 31 30 25 21 21 20 19 28 40 48 56 59 70 76 75 69 60 53 57 60 55 55 55 50 47
36 34 20 20 20 20 18 17 19 20 20 18 18 18 21 21 19 24 31 26 25 24 23 26 35 50 58 62 65 74 89 92 73 55 52 49 48 46 48 47 49 50 45 43
30 29 33 31 26 23 22 20 19 19 20 20 20 21 27 20 20 24 23 26 26 24 31 48 62 76 72 75 86 100 93 76 59 52 51 45 43 48 43 45 47 46 51 58
25 31 34 32 32 40 24 20 17 17 18 20 19 22 20 22 23 25 28 25 24 38 60 69 75 78 76 79 78 67 64 59 55 50 46 45 46 50 52 56 53 63 77 90
21 21 23 35 32 30 32 34 18 17 17 17 18 21 22 20 19 18 21 25 39 60 67 66 59 55 51 51 56 58 48 46 49 51 57 67 63 66 80 84 77 86 89 99
16 17 18 21 25 28 28 33 25 18 17 17 18 17 17 16 18 21 27 43 58 68 78 73 57 45 44 46 45 55 62 62 63 75 84 86 90 90 78 80 100 100 100 99
28 28 21 18 19 21 25 27 25 20 15 14 15 15 16 19 26 39 53 58 61 59 49 39 41 48 48 48 48 47 50 65 85 88 86 90 96 96 99 100 100 97 90 81
41 46 41 42 27 20 19 19 18 17 17 17 18 24 30 44 50 54 60 58 46 38 44 51 55 49 54 62 61 65 80 83 90 98 100 100 100 100 100 97 94 93 82 61
41 43 43 44 45 38 31 31 32 34 39 38 39 46 59 47 62 61 51 43 40 46 53 53 49 53 56 58 74 95 94 100 100 100 100 100 100 98 100 95 88 72 54 40
41 41 44 46 46 41 39 39 40 43 46 55 67 63 55 58 56 45 41 40 46 47 44 50 57 62 70 81 95 100 100 100 100 100 98 100 100 95 78 68 55 42 31 21
42 40 41 44 49 46 40 35 36 37 43 46 42 51 46 47 41 35 34 37 40 48 57 67 76 83 95 100 100 100 100 100 100 100 100 96 84 75 54 38 32 26 16 11
38 36 36 36 45 54 44 37 39 46 45 41 42 42 41 40 38 41 48 56 60 72 84 96 99 100 85 98 100 100 100 100 100 95 84 73 50 38 34 25 15 12 11 10
37 43 43 32 33 50 56 45 44 39 36 38 38 46 52 43 48 54 57 60 76 91 100 100 90 88 100 100 100 100 100 92 92 75 63 42 31 29 16 11 11 10 7 6
47 42 36 37 32 52 49 54 56 52 48 48 52 54 50 51 59 60 68 84 96 100 97 84 99 100 100 100 100 100 94 80 62 45 31 26 17 14 13 11 8 6 6 6
44 40 36 30 32 52 42 45 47 54 46 46 48 51 57 62 62 68 92 100 100 96 92 100 99 93 96 99 95 89 68 53 34 24 19 14 14 13 9 7 6 6 6 5
48 40 31 32 42 54 39 39 42 42 48 50 54 66 75 71 85 98 100 99 77 74 80 90 87 98 99 82 58 50 42 26 19 14 13 13 11 7 6 6 6 5 4 3
55 47 42 35 36 42 34 37 49 46 49 58 64 74 80 94 100 100 95 73 71 70 72 87 91 85 74 52 46 34 18 15 13 13 12 8 6 6 6 6 4 3 3 4
66 54 47 41 37 42 34 43 51 52 57 64 73 95 100 91 92 85 68 71 70 67 81 81 76 56 50 37 20 15 12 13 12 10 6 6 6 6 5 4 4 4 4 5
72 54 51 49 48 47 51 50 53 64 79 94 99 77 81 80 68 62 65 66 79 83 86 72 54 43 30 17 14 14 14 12 9 6 6 6 5 4 4 4 4 4 5 5
82 67 57 45 69 54 54 60 74 83 76 73 82 92 83 70 65 66 80 90 81 74 53 42 30 22 15 15 15 15 12 8 6 6 6 4 4 4 4 4 5 5 5 4
75 69 66 56 59 60 77 85 81 66 74 91 93 78 64 54 63 94 78 72 60 43 35 28 17 14 17 16 14 10 7 6 6 5 4 4 4 4 4 5 5 6 5 5
78 62 55 65 71 81 71 67 80 92 97 98 82 62 63 77 89 73 59 52 38 34 27 18 15 15 15 12 8 6 5 5 4 4 4 5 4 5 5 6 6 5 6 6
70 58 61 61 65 78 92 100 99 83 76 72 69 66 80 71 63 57 52 41 32 22 18 16 15 14 11 7 6 6 5 4 4 4 5 5 5 5 6 6 5 6 6 6

GFSCGP_250_rhum_003.txt.gz
RH
13 13 12 14 14 13 12 12 12 12 12 13 15 18 26 29 27 27 28 28 26 22 22 22 21 22 27 26 25 25 23 25 24 32 48 52 55 58 71 90 85 67 54 43
15 15 14 15 15 15 14 13 13 14 20 26 32 36 36 38 36 30 30 24 21 20 22 23 26 26 23 23 21 23 33 47 44 43 45 53 60 66 70 64 50 45 43 42
17 16 16 16 17 16 16 15 15 17 23 26 31 33 32 28 24 20 20 19 18 19 22 24 23 26 26 30 40 55 50 53 54 53 57 59 62 66 60 53 49 46 42 42
18 19 19 19 18 17 17 17 18 20 24 27 29 27 29 22 18 17 17 18 19 21 23 23 28 27 35 54 58 55 62 64 61 56 52 58 62 46 46 46 48 48 51 69
23 22 19 20 21 19 18 18 19 19 20 19 21 20 15 18 16 16 17 18 21 24 24 29 27 33 62 70 68 68 66 57 52 49 53 50 48 46 46 46 61 75 85 92
24 28 32 37 31 21 21 22 20 19 16 15 18 19 13 20 15 17 19 22 24 25 26 26 30 45 68 71 75 76 62 49 47 47 45 43 45 55 65 78 89 86 80 86
24 20 20 23 30 37 42 37 25 20 18 16 18 17 14 17 17 18 21 21 20 22 25 31 40 54 70 72 64 52 47 51 47 44 52 62 70 80 90 93 92 100 100 100
20 19 20 20 21 31 32 31 36 42 22 17 17 16 15 16 17 20 21 21 21 25 32 42 56 68 63 51 46 49 52 48 49 56 66 73 83 94 100 100 100 100 99 100
24 18 18 16 17 18 21 26 27 27 34 26 20 18 14 16 16 16 16 20 30 48 57 62 58 52 42 42 44 45 50 58 66 70 88 96 81 84 100 99 82 80 86 75
42 50 54 46 30 24 20 20 21 21 23 23 19 16 14 14 18 26 37 50 59 62 52 44 45 42 44 47 49 56 69 82 94 99 98 73 81 93 88 99 100 92 85 73
54 56 53 51 46 39 36 36 34 32 30 25 26 40 39 33 39 48 50 57 53 48 36 36 41 42 41 49 58 72 88 99 100 90 77 81 100 100 97 75 81 77 72 63
48 44 40 42 47 46 46 49 51 51 53 50 46 44 48 45 48 50 54 51 46 44 40 48 48 48 51 62 83 100 100 98 86 84 91 98 97 94 84 81 72 65 53 38
45 40 37 36 36 36 36 51 52 53 50 49 48 64 51 48 47 43 41 45 41 40 48 56 56 59 69 94 100 100 86 79 94 84 88 94 88 75 61 58 52 33 22 15
46 37 35 34 33 31 28 30 40 50 48 55 50 53 51 41 37 36 40 40 45 52 61 59 66 88 99 100 89 82 91 90 94 100 97 91 64 57 53 45 28 18 15 13
52 46 46 49 47 38 31 29 28 32 42 47 42 36 36 39 40 42 49 52 55 61 64 74 92 100 100 99 99 95 98 98 87 77 66 58 50 50 39 27 17 14 14 12
54 59 62 60 50 48 38 31 31 34 46 48 42 44 47 46 46 51 56 64 73 80 91 100 100 100 93 89 86 78 75 52 47 51 54 49 40 27 21 16 14 13 10 7
59 61 64 72 70 62 44 37 40 47 43 41 40 43 45 47 47 50 57 62 75 99 100 89 83 75 72 63 57 68 61 58 54 45 38 26 19 16 14 13 10 7 6 6
68 69 65 65 71 61 58 62 57 59 48 40 39 42 46 45 52 56 59 76 95 88 81 84 73 61 57 62 89 90 60 37 32 25 19 16 15 12 10 7 6 6 5 4
61 62 62 65 66 58 59 55 47 48 46 50 53 47 47 48 52 65 76 88 80 84 88 73 60 74 92 83 70 49 30 23 18 16 14 11 9 7 5 5 5 4 4 4
62 63 59 62 52 59 60 64 59 47 48 54 58 59 58 61 70 89 89 85 90 79 70 58 64 66 61 52 39 23 18 15 14 13 11 8 6 5 5 5 4 4 4 4
63 61 64 53 57 61 51 50 50 53 59 56 48 43 54 67 72 74 81 79 68 60 68 59 61 56 45 35 23 18 15 13 12 9 7 6 6 5 4 4 4 4 4 4
65 64 64 64 73 57 56 51 52 48 43 47 56 70 76 77 80 83 78 74 72 65 56 64 56 39 33 25 18 15 14 12 9 6 5 5 4 4 4 4 5 5 5 5
82 75 74 62 79 63 50 46 44 51 53 56 69 75 81 85 84 83 73 66 61 62 69 54 42 35 28 18 16 13 12 10 7 6 5 4 4 4 4 5 5 6 6 6
78 71 68 77 91 76 72 58 62 67 71 81 86 92 89 88 80 72 69 70 76 76 66 58 38 30 19 14 12 11 9 7 6 5 4 4 4 5 5 5 6 6 6 6
75 76 64 70 72 63 61 53 57 71 92 100 100 95 93 90 87 77 81 83 81 69 52 39 28 19 14 12 10 8 6 5 5 4 4 4 5 5 6 6 6 5 6 6
90 73 67 65 66 56 51 61 77 89 96 97 95 93 83 89 87 86 98 87 73 56 50 30 18 12 11 10 8 6 5 4 4 4 5 5 6 6 6 6 6 6 6 6

GFSCGP_250_rhum_006.txt.gz
RH
80 91 98 85 76 76 77 77 63 42 30 20 14 15 21 26 23 20 21 22 21 19 16 16 23 35 23 25 23 21 20 22 24 37 44 40 39 43 46 40 39 38 40 45
56 61 53 46 35 28 21 15 13 14 14 16 18 18 28 29 31 26 23 27 22 18 17 18 18 20 23 22 24 25 26 37 45 40 39 47 49 46 40 38 40 41 40 42
14 13 12 13 14 14 14 14 13 14 15 16 19 17 26 25 28 24 27 25 22 18 18 17 18 20 20 22 27 25 28 51 53 42 46 50 46 40 40 42 40 41 47 48
17 17 16 16 16 16 16 15 14 15 16 16 21 18 16 32 23 26 22 22 18 18 19 18 18 21 22 25 24 26 30 51 53 48 43 42 40 42 44 42 44 49 58 62
25 22 20 20 19 18 19 17 16 18 20 20 25 34 12 21 18 25 19 19 19 18 16 18 20 20 22 23 26 32 49 56 53 48 45 44 39 43 47 50 53 60 67 71
26 26 27 31 28 25 22 21 21 19 19 20 18 29 14 14 17 17 20 19 18 18 19 17 18 20 23 27 43 60 58 47 46 43 46 47 44 49 62 73 80 87 95 92
22 20 19 20 21 24 28 28 30 33 28 24 25 28 16 18 16 14 15 17 18 18 18 18 18 20 39 63 53 47 42 46 49 46 44 46 54 68 82 91 98 100 82 80
17 16 16 17 17 17 24 28 30 32 34 32 44 41 20 19 22 16 14 14 14 14 15 18 29 53 57 56 41 42 49 48 44 44 47 54 67 80 92 94 84 70 71 69
41 41 45 45 36 30 25 25 23 22 23 26 27 22 23 29 28 19 15 16 26 38 46 59 65 68 60 45 42 48 53 60 62 61 65 68 79 84 100 91 77 64 55 54
58 57 56 51 48 50 51 50 55 51 57 52 36 29 22 23 32 44 58 40 49 55 53 50 45 43 45 47 47 54 59 56 63 73 96 100 100 95 82 65 56 54 57 62
49 46 45 43 43 49 60 67 67 61 60 53 75 49 52 32 35 38 39 42 42 44 40 38 43 46 42 43 50 60 70 72 89 99 97 88 75 72 64 52 51 58 63 67
54 49 43 38 37 37 38 39 38 38 46 59 63 66 54 52 49 43 42 42 47 46 46 43 49 52 54 55 61 58 65 93 100 93 77 64 54 53 51 54 54 51 51 36
59 52 43 40 42 48 52 57 48 45 38 37 31 35 42 52 51 52 50 47 45 49 47 48 53 57 59 53 53 79 98 82 69 73 74 59 54 62 57 53 44 33 23 18
61 55 48 43 43 47 50 51 44 42 47 44 33 32 38 44 44 43 40 38 42 41 42 46 45 42 43 54 83 96 80 83 76 64 64 63 64 60 49 31 24 17 15 14
58 54 51 52 55 55 56 54 55 51 42 42 41 41 42 45 44 39 39 37 40 39 34 38 47 62 82 90 97 100 82 69 63 66 67 55 45 33 29 20 15 13 12 11
61 63 64 61 60 63 68 63 68 65 51 38 42 39 40 45 42 36 41 44 41 38 49 69 81 83 86 88 85 76 66 70 70 72 61 43 28 15 14 12 11 11 8 6
62 59 58 58 57 57 60 66 69 64 52 45 42 47 44 40 41 37 47 44 48 71 75 78 81 91 92 78 71 77 84 79 74 60 36 24 15 12 9 8 6 5 5 4
63 65 68 70 70 69 61 65 63 57 57 56 48 50 48 47 50 51 50 59 61 67 78 86 91 88 81 87 90 93 76 74 59 33 22 12 10 9 8 6 4 4 3 3
65 64 64 68 72 74 67 77 71 57 62 58 52 48 49 47 52 54 62 67 71 80 86 94 92 95 100 97 71 60 69 53 35 24 12 10 9 7 5 4 4 4 4 4
71 67 67 64 63 62 60 60 62 52 60 60 64 60 59 61 64 76 82 87 94 96 100 90 81 81 65 63 72 69 51 39 20 11 9 9 7 5 5 4 4 4 4 4
51 41 42 56 63 64 63 66 55 48 56 51 56 56 54 54 61 74 84 83 85 92 82 72 66 72 84 80 70 53 38 28 10 8 8 6 5 5 4 4 4 4 5 5
47 49 55 50 51 55 59 54 53 57 50 50 52 54 50 62 76 79 74 76 95 88 76 79 82 86 85 80 60 36 24 12 9 8 7 6 5 4 4 4 4 5 5 5
62 69 57 55 59 54 49 44 45 46 51 49 53 56 64 78 74 80 92 100 86 83 84 85 88 92 86 60 35 22 11 9 8 7 6 5 4 4 4 5 5 6 6 6
72 76 69 54 66 63 69 58 54 54 53 54 62 81 87 79 88 94 90 91 91 90 79 93 92 89 70 36 20 12 9 8 6 6 5 5 4 4 5 6 6 6 6 6
97 79 80 68 68 84 63 67 59 61 66 75 74 72 80 82 81 77 87 82 82 88 99 87 84 70 40 19 13 10 9 7 6 5 5 4 4 5 5 6 6 6 6 6
100 92 83 66 71 82 70 64 60 76 84 84 80 79 74 69 67 70 80 86 93 94 82 83 72 45 22 16 11 9 8 6 5 5 4 4 5 5 6 6 6 6 6 6

GFSCGP_250_rhum_009.txt.gz
RH
21 20 23 31 34 37 37 42 47 53 58 68 63 58 44 42 36 29 22 20 15 17 22 20 17 17 16 16 19 22 26 25 20 23 26 24 22 25 31 38 39 39 40 38
42 46 59 70 79 81 81 79 66 62 47 50 39 34 33 31 22 23 21 19 18 15 16 17 15 16 16 18 19 18 20 21 23 25 22 21 28 38 42 46 43 42 41 35
61 61 59 59 61 53 41 35 26 18 18 17 18 14 22 17 16 25 27 27 16 19 17 16 18 17 16 17 18 19 21 23 22 22 27 42 48 48 47 44 42 41 39 38
16 15 14 14 13 14 14 14 14 15 14 15 16 14 18 19 18 14 23 20 25 22 20 19 17 16 17 18 19 20 20 21 21 40 50 46 38 36 36 36 38 38 38 38
20 19 18 18 18 18 17 17 17 16 16 15 18 15 15 17 18 32 37 18 17 15 17 19 20 20 20 21 22 19 18 19 44 52 48 38 38 39 41 42 44 49 52 57
30 26 27 26 24 23 23 23 22 21 21 20 20 21 19 17 16 18 24 27 25 20 17 16 16 17 18 17 16 22 39 54 59 59 50 44 43 51 58 58 57 57 60 67
27 25 22 22 22 23 22 22 28 32 34 36 34 29 25 25 22 17 18 18 17 18 17 15 14 18 34 43 50 52 54 49 43 41 39 36 36 39 46 44 44 41 54 75
17 17 18 18 19 18 18 20 22 23 24 23 22 25 27 28 24 21 18 16 15 17 18 21 30 36 41 46 42 40 40 38 35 36 41 44 51 57 56 82 92 96 98 79
40 52 58 60 60 58 60 58 53 59 58 57 43 49 53 56 51 47 40 28 30 32 36 38 41 38 38 38 36 37 40 46 56 57 57 58 58 60 80 91 91 77 65 58
60 57 52 46 46 48 52 54 55 56 54 54 49 49 49 47 54 51 51 59 55 41 44 47 48 46 43 43 43 42 43 41 43 51 56 69 86 88 84 79 72 65 61 61
52 52 49 45 42 41 41 49 46 44 43 44 47 33 32 30 28 30 33 42 52 47 46 42 39 36 42 46 45 42 42 47 53 64 80 86 84 79 78 77 72 72 62 59
54 54 53 45 39 42 45 38 39 42 47 50 57 45 39 42 35 30 31 34 42 50 47 42 38 44 42 42 42 45 54 74 86 91 95 97 98 84 77 74 58 65 57 32
60 60 56 50 42 32 35 55 66 68 63 54 59 54 48 50 49 48 46 51 53 52 47 43 43 41 44 48 64 73 87 92 96 99 100 90 69 64 57 53 44 35 22 16
62 58 53 53 56 58 57 60 58 59 62 66 57 57 52 46 38 38 43 43 42 42 44 43 43 50 55 64 78 92 99 100 97 83 67 64 62 54 55 48 25 16 11 9
60 51 52 56 55 57 56 54 53 49 47 49 50 50 55 49 41 46 48 49 45 41 43 49 52 58 74 83 80 85 96 90 78 68 64 61 54 55 43 18 12 9 8 8
60 60 60 60 60 62 60 58 53 53 52 55 51 54 50 50 41 44 47 47 46 47 48 57 66 72 72 72 91 85 75 79 76 69 70 60 58 51 20 12 9 8 6 5
57 57 63 64 66 67 64 62 56 54 51 59 51 56 59 49 45 48 54 56 55 56 57 72 80 74 69 81 80 74 75 76 75 78 74 65 51 18 12 9 8 6 5 4
53 57 68 80 78 68 53 48 50 58 59 66 60 59 58 49 45 49 51 57 61 62 77 76 73 74 74 64 72 77 90 86 78 68 59 45 18 12 10 8 6 5 4 4
79 98 97 72 56 49 43 56 61 63 66 56 54 50 46 41 43 50 55 60 67 74 68 70 68 67 66 79 86 85 80 84 69 54 42 33 13 9 8 6 5 4 4 4
100 71 57 48 46 47 47 62 66 70 72 57 62 53 47 54 61 63 70 75 75 68 72 73 74 77 79 78 74 78 84 74 50 45 39 12 9 8 6 5 4 4 4 4
53 52 52 52 56 55 57 67 68 65 57 57 54 53 65 68 69 69 69 71 66 63 74 82 77 80 80 78 82 77 67 50 44 42 14 9 8 6 5 4 4 4 4 4
62 58 60 57 49 56 57 66 80 70 54 52 55 61 66 64 67 75 76 66 60 70 84 78 78 77 83 84 71 63 49 46 33 16 10 8 6 5 4 4 4 4 5 5
59 67 69 74 70 61 46 59 61 70 76 60 63 70 65 64 64 70 72 64 76 89 78 81 76 82 90 72 68 54 44 39 14 10 8 7 5 4 4 4 4 5 6 6
100 93 81 61 83 75 68 65 56 54 50 55 62 64 64 62 64 67 68 84 90 86 84 70 75 86 76 71 60 44 40 22 10 8 7 6 5 4 4 5 5 6 6 6
100 92 79 70 63 55 64 49 59 52 51 53 60 67 67 74 72 71 78 86 84 88 77 86 91 80 72 63 45 43 26 12 9 8 6 5 4 5 5 5 6 6 6 6
100 100 93 80 79 86 69 75 72 61 56 57 67 71 79 82 87 88 92 82 86 77 82 89 86 80 64 53 44 26 12 10 8 6 6 5 5 5 5 6 6 6 6 6

GFSCGP_250_rhum_012.txt.gz
RH
9 11 14 14 14 15 18 21 15 19 25 29 29 33 32 34 39 49 59 54 42 37 32 31 37 44 33 43 68 73 55 16 16 17 19 19 21 22 22 21 25 48 49 41
18 17 20 18 18 21 29 31 35 37 48 52 62 68 65 59 49 42 33 29 29 27 27 31 30 26 44 26 20 16 15 15 16 17 19 22 23 21 20 25 49 53 42 37
40 42 41 46 62 68 76 80 79 77 63 59 54 37 25 24 21 25 29 28 22 20 24 22 23 20 16 15 16 17 17 17 17 18 20 20 18 21 37 56 56 47 45 42
62 50 52 50 46 48 47 36 29 28 23 19 16 15 16 16 16 17 19 23 26 20 18 17 16 16 16 16 16 16 16 16 16 17 18 28 45 52 46 43 39 38 34 32
18 18 16 17 18 17 18 19 17 18 18 17 16 16 16 18 21 22 22 22 24 23 24 18 17 17 15 15 15 15 14 16 24 35 42 42 38 40 41 36 38 43 47 52
21 21 20 19 20 20 21 20 20 21 22 21 19 19 21 24 28 34 33 33 32 28 23 23 26 22 21 19 23 30 40 42 44 47 46 48 50 44 44 47 50 53 56 57
28 29 29 29 27 28 25 21 21 24 24 21 25 24 24 25 27 28 28 31 30 28 26 27 21 26 40 38 35 36 38 41 44 49 54 47 44 40 39 46 50 59 70 82
28 23 22 21 21 25 29 41 38 50 48 56 57 55 49 40 35 38 50 53 58 44 44 33 33 45 51 56 54 54 50 46 40 38 40 44 53 64 64 79 92 82 72 64
55 58 64 71 70 64 58 57 55 55 52 51 50 54 55 52 44 36 33 32 34 32 28 26 26 24 25 32 40 44 46 49 57 61 59 54 50 58 68 62 51 51 57 60
70 60 52 49 49 49 48 49 55 53 49 43 38 36 37 36 32 30 32 34 31 29 34 33 32 35 40 42 43 44 50 52 53 54 54 53 51 46 47 49 59 66 61 63
56 56 53 50 44 43 42 41 46 49 46 37 30 34 34 35 41 42 41 39 41 39 38 41 46 48 48 47 51 53 53 54 53 46 48 56 59 59 62 72 68 61 60 57
62 64 59 52 50 46 49 51 47 40 48 56 53 51 53 48 45 44 45 43 40 38 40 43 46 48 48 52 53 50 47 46 51 62 62 59 58 64 68 64 62 61 49 37
68 65 60 57 53 53 53 52 49 55 56 58 57 51 51 48 48 50 47 42 42 42 44 47 48 48 49 49 48 52 58 69 71 62 67 67 66 71 68 66 55 44 39 36
70 66 59 51 45 48 56 63 68 67 61 53 49 51 41 42 46 55 60 62 57 51 51 52 57 60 58 54 57 60 65 65 68 73 77 75 78 76 65 49 42 37 28 15
64 64 54 56 60 64 65 60 50 46 43 40 41 49 52 54 55 55 53 53 53 46 45 48 51 54 54 60 66 66 68 74 79 81 81 78 68 54 42 38 33 28 12 9
49 50 49 48 56 60 59 48 46 45 41 38 43 50 51 51 46 45 46 44 42 40 51 57 60 62 63 67 62 63 73 85 85 80 68 62 56 46 40 29 24 11 8 7
58 51 49 54 66 71 66 59 46 46 54 61 69 59 48 52 55 53 48 51 50 58 60 60 58 61 66 67 70 80 89 83 76 74 66 69 54 36 27 22 11 8 6 5
53 55 60 81 61 68 62 51 46 50 59 61 63 65 69 70 64 57 58 63 64 64 64 66 63 69 70 72 82 83 81 83 78 76 72 55 41 25 20 12 8 7 5 4
58 80 99 89 77 56 56 53 48 56 71 66 72 64 60 60 59 57 62 81 78 69 70 67 68 68 72 84 85 83 84 90 88 67 60 43 29 20 14 8 7 5 4 4
99 100 83 62 66 66 60 59 58 71 80 73 81 77 71 70 63 62 69 71 66 63 66 68 64 82 96 95 84 92 93 92 66 57 38 33 19 13 9 7 5 5 4 4
55 53 72 84 71 74 56 62 70 78 75 67 87 74 75 64 62 61 62 62 63 73 73 69 77 90 90 91 96 80 81 68 58 36 34 22 16 9 7 6 5 5 5 5
94 99 97 93 99 84 65 67 77 77 70 65 75 68 78 74 68 69 66 61 67 66 65 78 98 97 95 98 86 78 74 62 41 34 24 18 9 8 7 5 5 5 5 5
100 100 100 100 100 97 88 85 80 74 76 86 82 82 87 77 68 66 61 63 64 71 84 100 98 96 93 90 87 75 66 52 37 25 20 10 8 7 6 5 5 5 5 6
100 100 100 100 95 88 77 92 76 71 72 91 84 80 70 62 60 61 66 70 79 88 100 100 99 95 95 96 80 67 52 37 26 19 11 9 8 6 6 5 5 6 6 6
100 86 81 77 79 75 94 86 77 71 90 74 71 64 62 61 62 61 75 91 87 90 99 96 94 93 92 73 63 52 39 27 18 10 9 8 7 6 5 5 5 6 6 6
100 93 75 71 76 78 84 77 68 77 83 73 70 69 72 70 67 86 93 90 92 98 97 94 88 80 74 60 49 37 23 15 10 9 8 7 6 6 5 5 6 7 7 6

GFSCGP_250_rhum_015.txt.gz
RH
2 2 1 1 2 3 12 29 38 46 44 31 28 44 44 31 26 31 34 37 45 55 58 52 44 46 72 58 78 100 100 100 100 97 100 86 60 29 16 16 16 17 18 20
8 10 12 14 15 15 12 12 10 14 17 19 21 20 28 44 61 64 69 62 54 46 38 37 39 38 42 76 86 65 71 75 74 43 32 20 17 17 16 16 17 21 39 47
10 10 13 15 14 14 22 30 29 30 34 53 72 79 68 56 51 38 29 22 21 23 26 29 32 32 34 37 36 32 29 23 19 17 18 17 16 16 18 30 43 41 38 37
26 36 43 46 57 61 64 64 69 79 77 65 58 46 29 23 20 18 18 18 19 20 21 21 21 20 19 19 18 18 17 16 15 15 15 17 19 29 40 37 34 35 37 37
59 54 47 48 46 52 55 52 39 28 19 16 16 16 18 18 19 19 20 19 20 23 25 23 22 21 17 16 16 17 16 15 16 17 22 29 36 36 35 38 41 42 46 49
22 29 30 25 20 20 21 20 19 18 18 18 20 23 28 28 30 30 31 35 35 32 32 32 35 29 26 39 42 28 27 34 37 39 43 44 45 47 50 57 55 45 41 44
18 19 20 21 20 21 21 20 18 19 24 23 24 27 37 51 55 57 57 52 48 44 40 39 38 36 35 35 34 37 41 41 44 49 50 48 48 50 46 41 43 53 62 59
22 26 26 24 20 18 17 29 40 51 55 52 50 49 49 47 47 46 45 42 40 40 39 34 36 40 39 46 49 54 52 50 48 46 46 49 54 53 56 64 64 65 67 59
22 21 22 38 54 65 59 50 46 45 47 47 47 43 39 38 39 38 37 39 43 47 46 43 41 40 45 49 53 52 51 53 52 51 54 63 68 62 55 55 64 56 46 46
68 70 66 54 47 45 44 44 48 52 59 54 50 45 39 37 42 44 46 44 40 37 41 40 41 40 40 42 42 42 46 47 48 52 57 56 55 56 60 61 55 51 51 51
58 52 49 48 46 47 48 51 54 53 50 47 44 42 45 46 44 42 39 36 34 34 36 41 44 45 44 42 44 46 47 50 55 61 61 56 59 59 54 50 48 48 48 52
59 56 58 58 55 56 58 58 55 55 53 49 48 45 42 39 38 39 37 33 32 36 38 40 41 44 42 39 39 45 51 54 54 52 60 63 58 48 53 58 61 62 56 47
56 67 69 66 62 58 53 57 62 60 54 43 43 44 42 41 38 37 38 37 37 36 34 34 35 38 39 42 51 57 57 59 61 64 64 60 56 63 76 70 61 58 41 30
72 74 73 68 62 56 61 66 58 50 49 48 45 42 42 41 45 47 47 48 48 46 49 49 48 51 66 72 64 60 66 65 66 66 64 65 66 74 72 61 53 36 24 21
86 80 70 60 54 52 56 57 53 56 59 50 45 46 49 57 64 54 53 54 56 59 68 78 79 73 73 70 64 65 64 67 67 65 66 68 78 81 70 50 35 27 19 13
71 56 56 54 48 47 54 50 50 59 54 46 46 55 63 65 71 70 68 66 62 65 72 73 72 68 65 61 59 62 67 66 66 68 79 86 83 72 55 42 31 18 13 9
62 60 58 53 51 58 78 57 58 55 52 41 42 55 65 67 69 85 76 77 75 73 67 61 58 56 56 56 63 66 70 61 70 80 86 87 74 66 49 33 20 13 9 8
63 57 54 56 62 86 94 89 59 61 61 53 49 62 71 66 67 88 90 95 82 71 58 52 56 57 60 63 71 69 69 78 82 94 93 70 62 51 35 21 13 8 9 8
70 70 72 83 94 79 86 75 73 48 63 48 60 70 98 89 72 70 74 61 55 61 64 62 60 62 66 74 77 78 83 92 100 98 77 62 48 32 24 15 8 8 8 6
86 75 78 75 55 64 96 94 59 52 68 82 75 90 100 95 70 71 70 54 69 69 67 64 69 69 83 85 80 86 99 100 98 78 58 48 33 25 17 10 8 8 7 6
70 67 64 64 81 100 100 100 81 72 88 100 92 98 100 97 85 86 64 62 59 61 66 78 80 89 93 87 96 100 100 99 78 66 51 37 28 16 10 8 8 7 6 5
96 83 87 100 100 100 100 83 88 100 100 94 98 100 100 95 83 72 72 74 72 81 93 92 99 99 87 90 95 100 88 80 67 56 39 28 17 11 8 9 7 6 5 5
84 91 100 100 100 100 100 78 88 99 96 96 97 100 99 89 83 79 87 89 98 98 94 95 99 88 92 92 94 76 75 69 63 46 28 17 11 9 8 8 6 6 5 5
100 100 100 97 100 99 80 97 99 93 95 88 97 98 99 97 90 92 87 85 89 95 92 94 87 93 97 88 78 69 71 70 54 35 18 12 9 9 7 6 6 5 4 5
93 86 89 95 100 83 97 96 91 96 86 88 91 97 92 81 76 80 82 90 95 94 90 88 93 98 91 80 68 71 66 48 34 18 12 10 9 8 6 6 5 5 4 5
98 98 79 72 77 76 88 95 100 92 91 89 80 72 71 73 81 83 88 96 92 86 86 91 97 89 82 69 71 62 40 30 18 13 11 10 7 6 5 5 4 4 5 6

GFSCGP_250_rhum_018.txt.gz
RH
25 32 52 59 78 65 64 59 60 69 70 67 71 77 74 69 67 49 46 46 33 28 30 36 47 55 60 62 52 89 100 100 97 100 100 100 100 100 100 95 83 30 20 20
22 24 23 20 16 10 4 3 4 8 14 27 36 38 28 21 28 33 36 44 58 68 67 46 34 35 36 78 79 80 84 86 85 80 98 92 74 58 34 29 25 20 21 26
11 6 4 4 3 3 8 12 14 17 17 10 14 20 33 50 65 74 72 51 34 28 20 20 23 29 28 30 38 41 36 34 35 32 27 22 21 22 22 23 27 38 38 44
6 7 7 9 12 12 12 12 20 22 29 52 72 78 66 52 43 36 23 17 16 17 19 20 19 19 20 24 24 23 26 25 26 27 23 23 26 26 32 40 46 52 52 47
25 24 23 21 23 38 43 42 57 68 63 42 28 23 21 20 18 18 19 20 21 21 24 30 30 33 33 32 34 39 35 30 29 37 42 40 41 41 41 37 34 34 37 38
52 44 43 44 47 51 52 44 30 21 20 22 22 20 21 23 27 29 26 30 46 48 44 39 35 34 34 36 36 34 31 30 30 30 31 35 39 40 40 40 42 51 52 49
44 43 47 44 33 25 25 23 23 25 22 22 24 25 27 30 40 44 45 42 38 39 42 48 47 43 41 39 37 35 34 34 34 34 38 40 41 42 44 48 50 49 45 49
19 19 18 18 18 21 24 22 26 26 28 34 39 44 43 41 40 40 44 51 52 46 42 39 37 35 36 38 40 44 46 45 44 43 43 45 47 47 47 49 57 71 76 71
28 26 25 24 21 22 39 53 47 41 35 33 34 39 45 46 47 45 42 40 40 41 38 37 38 35 32 28 27 29 33 37 39 38 41 43 47 59 81 83 77 66 59 56
22 20 21 34 45 48 43 39 38 40 44 46 47 48 48 46 42 40 38 36 33 33 34 33 32 33 32 37 44 44 48 56 58 58 66 73 75 78 74 66 58 47 51 55
37 50 52 48 41 40 40 41 44 50 53 52 52 51 48 42 38 36 36 36 34 36 36 42 51 57 59 57 55 53 54 52 54 60 64 65 64 61 58 48 52 62 58 51
57 49 46 46 48 50 52 52 54 55 54 58 52 45 41 38 37 38 44 43 44 43 40 46 54 55 57 55 51 54 56 58 61 62 62 59 58 56 50 57 62 59 61 52
52 53 60 62 62 62 61 56 56 60 59 52 50 46 43 40 44 53 55 63 60 52 48 49 60 62 62 60 60 59 55 55 57 56 54 54 50 54 61 68 65 66 61 43
53 57 66 71 73 70 65 58 59 60 56 56 49 48 46 41 47 50 59 62 73 69 64 73 74 68 63 59 60 58 56 56 54 51 49 52 56 67 68 70 73 63 54 39
69 79 82 83 80 72 63 59 56 58 58 56 49 49 43 44 49 63 63 68 65 65 66 70 76 75 67 65 66 62 59 53 52 56 60 65 67 82 84 87 79 69 46 27
97 94 85 73 71 74 80 69 62 66 68 62 56 74 64 48 60 82 86 71 67 66 68 71 79 64 56 53 56 59 59 64 63 73 77 76 89 90 92 79 71 39 30 16
89 77 71 79 58 59 86 61 66 70 77 64 76 64 58 49 74 99 89 82 82 80 79 80 80 63 62 55 60 62 70 80 82 81 78 90 89 97 85 75 48 27 15 11
96 82 70 74 59 58 74 86 78 62 70 76 74 53 47 57 98 100 84 94 80 87 89 91 81 67 60 60 65 72 90 92 85 84 93 97 100 95 77 60 27 17 12 10
74 66 64 67 73 68 97 100 92 65 88 100 56 72 51 83 100 98 90 90 91 94 98 96 76 64 64 69 78 96 94 89 82 95 99 98 99 85 69 27 17 13 10 10
70 74 74 77 72 79 100 100 100 89 99 100 100 73 85 99 100 100 94 90 88 90 87 76 68 72 75 81 87 90 88 79 99 98 97 100 92 71 34 18 14 10 10 9
91 84 78 74 60 84 100 97 100 100 96 91 89 84 92 98 100 100 95 92 93 84 80 73 74 75 84 90 93 87 85 97 100 96 90 86 63 38 21 14 10 10 10 7
82 67 66 64 78 80 86 100 100 85 77 86 82 93 99 100 93 90 99 100 88 86 80 78 81 84 88 88 88 80 96 100 100 92 81 58 42 23 16 12 9 10 8 6
86 85 79 96 99 98 100 100 95 78 87 94 93 92 96 94 91 92 87 80 88 92 75 73 78 83 89 83 82 98 100 100 96 71 54 40 26 17 12 10 9 9 7 6
73 81 100 100 100 100 95 86 74 77 84 83 87 94 93 94 94 90 92 95 90 62 64 75 87 94 83 86 94 99 100 87 67 46 27 22 16 13 11 10 9 7 6 5
100 100 98 88 86 66 68 68 65 70 82 91 86 94 98 97 86 87 88 83 66 72 81 93 95 85 88 89 94 93 89 69 46 29 20 15 13 12 10 10 8 6 5 5
100 78 63 57 60 52 61 73 86 98 99 85 86 90 90 89 77 76 70 70 72 86 90 85 83 88 88 90 81 69 58 38 30 19 16 14 12 11 10 9 6 6 5 6

GFSCGP_250_rhum_021.txt.gz
RH
76 88 88 72 95 100 100 100 98 86 85 85 84 90 96 91 85 88 88 80 71 66 40 39 43 47 48 50 55 59 71 63 97 100 100 100 100 100 97 100 100 100 100 84
70 66 71 82 80 87 100 99 84 85 86 84 81 72 54 38 39 46 55 52 31 28 36 51 63 60 42 32 30 38 55 50 54 81 46 54 63 81 91 81 79 60 31 24
33 23 23 33 47 48 42 28 15 8 6 9 12 17 22 26 23 20 29 46 59 64 55 40 28 19 16 17 19 21 22 24 25 31 36 28 27 30 35 33 35 41 50 57
19 18 18 18 13 9 6 4 4 8 13 19 27 38 54 61 64 68 65 52 22 16 16 20 24 26 29 35 39 39 40 40 39 40 46 52 53 46 44 44 42 43 48 50
9 6 5 4 4 5 10 19 23 29 55 74 66 61 66 54 40 19 17 20 25 28 27 37 45 44 42 40 39 39 39 39 39 40 41 43 42 42 42 44 44 42 40 39
7 10 10 10 10 23 30 41 50 60 55 49 49 27 23 18 21 24 30 42 51 55 50 45 44 44 42 40 39 39 38 37 35 34 34 33 34 36 37 37 36 36 36 39
44 40 48 43 43 41 50 48 40 27 20 19 20 22 24 28 36 52 59 56 55 54 52 49 45 42 38 34 32 30 30 31 32 32 33 34 35 36 37 33 33 42 45 45
52 51 49 49 44 38 25 18 19 20 22 31 47 54 56 53 52 51 52 51 50 46 42 37 32 31 30 30 33 38 40 41 40 40 39 38 36 34 37 44 50 56 61 62
23 22 19 22 21 21 22 23 32 46 56 54 53 53 54 55 53 51 49 43 38 34 31 30 34 35 34 35 39 43 44 46 48 52 64 74 75 73 72 70 64 62 57 56
22 23 26 28 26 24 32 45 42 42 44 43 47 50 52 51 48 43 37 36 37 40 43 46 46 46 47 47 48 59 68 70 67 61 58 58 60 60 56 56 54 52 53 63
27 27 26 27 44 44 43 40 39 41 43 47 51 54 51 44 40 38 37 41 46 50 54 68 74 77 80 92 95 96 80 71 67 60 59 57 50 50 55 52 50 58 66 75
28 39 46 47 44 44 46 50 52 53 51 54 58 53 49 43 42 42 41 46 60 61 66 68 66 76 86 85 85 81 73 63 53 52 52 49 52 51 49 60 67 78 74 73
57 51 47 48 53 58 62 62 59 57 58 61 59 61 56 52 50 51 50 50 57 64 72 70 66 59 59 69 67 63 56 51 51 47 48 48 49 57 67 72 82 70 68 66
53 52 57 64 69 73 74 70 64 58 59 60 54 69 58 61 62 67 52 43 46 58 82 74 76 71 72 65 61 61 60 54 50 48 44 50 61 68 78 85 72 72 87 73
58 57 65 74 82 84 83 78 70 68 70 63 58 81 60 66 73 64 49 48 54 66 73 81 89 80 80 73 68 67 65 57 53 50 53 60 74 80 89 78 83 98 73 51
73 85 91 92 92 93 96 90 78 82 70 64 66 90 59 67 73 60 64 57 62 79 80 99 90 87 82 81 76 72 67 61 57 58 64 74 82 91 88 90 98 81 64 46
94 94 97 100 93 98 100 81 78 68 66 65 82 80 72 88 91 80 67 64 82 74 90 95 92 94 87 85 79 75 66 61 62 65 73 84 96 99 98 99 94 70 55 30
94 89 97 98 72 85 99 100 86 67 68 69 71 62 83 100 96 87 65 73 81 89 93 100 100 90 98 91 81 75 62 64 70 80 91 99 100 100 98 73 63 53 27 17
90 80 79 87 77 73 96 100 97 70 68 62 58 88 100 98 73 70 77 87 91 93 96 100 96 94 95 77 78 63 70 76 87 99 100 100 100 97 56 45 38 26 16 14
79 77 69 76 65 78 100 100 83 76 81 88 100 100 100 87 76 67 73 82 91 91 98 94 97 98 81 74 66 74 82 93 99 100 100 99 93 47 33 25 22 16 14 12
72 72 72 69 69 81 88 82 89 92 96 100 100 100 98 85 66 60 60 82 94 86 89 100 98 85 73 68 81 91 93 98 100 98 99 94 71 48 32 21 16 14 13 11
75 77 82 82 90 83 79 74 76 94 100 92 83 78 68 65 56 61 80 92 91 84 94 100 85 70 73 84 86 92 92 100 100 100 97 85 60 48 30 18 15 14 12 10
91 88 84 96 92 66 65 79 93 91 82 75 66 65 60 56 64 73 83 100 90 84 94 82 76 80 86 88 97 100 98 100 96 88 75 62 48 30 22 17 14 12 10 10
95 87 92 88 100 100 100 97 80 66 74 79 71 60 55 58 72 94 100 96 91 84 76 77 80 87 94 100 99 89 94 90 78 70 58 52 27 18 16 14 12 11 10 10
100 100 100 100 100 94 87 79 78 72 71 63 57 60 66 74 84 90 91 85 72 67 65 72 85 96 95 96 91 92 79 71 57 55 46 30 20 16 14 13 12 10 10 9
100 100 97 84 75 64 76 77 75 74 65 61 62 67 72 77 83 80 72 68 68 74 90 99 100 100 95 94 79 80 72 49 49 35 21 16 18 16 13 11 10 9 10 7

GFSCGP_250_rhum_024.txt.gz
RH
100 100 100 100 100 100 100 100 100 100 100 100 100 100 100 100 100 100 100 100 100 98 90 86 79 75 60 40 44 49 53 52 48 55 98 98 98 100 100 100 100 100 88 99
100 100 100 100 98 100 100 100 100 100 100 100 100 100 99 98 96 94 92 86 73 58 58 53 38 45 50 50 53 33 24 25 24 46 49 38 48 59 68 69 64 71 94 83
99 97 100 100 100 100 100 100 100 100 100 84 76 78 75 66 50 25 25 29 34 40 45 54 56 46 30 20 17 19 22 25 28 31 34 35 35 35 37 39 40 41 42 39
83 87 82 81 84 87 93 90 84 72 42 17 8 8 7 12 20 28 44 60 58 60 42 22 18 21 29 35 37 40 40 39 40 44 45 45 45 46 48 50 51 51 52 52
57 48 31 17 17 24 26 28 17 10 8 10 13 20 24 36 63 55 35 22 17 18 23 32 39 39 37 38 41 44 47 47 44 43 44 46 46 46 45 44 41 39 37 37
21 17 17 16 14 11 8 9 9 14 21 27 34 43 53 41 22 19 20 24 34 40 40 42 43 45 44 41 39 38 38 37 35 33 34 35 37 39 41 40 37 35 35 35
9 8 7 7 6 7 14 26 65 73 57 49 39 25 20 20 25 38 48 47 47 51 50 50 44 39 38 38 36 35 34 33 32 35 40 43 45 43 36 34 36 41 41 45
11 18 19 29 42 59 76 69 53 47 31 22 22 30 42 46 46 48 52 55 57 49 42 41 42 42 36 35 36 39 41 42 44 49 55 54 50 44 43 43 43 42 48 58
36 41 48 58 57 52 47 29 24 22 22 34 44 42 44 48 55 60 63 52 44 45 42 39 39 37 42 46 50 56 66 72 76 84 89 83 71 65 54 46 48 54 55 54
41 43 38 38 30 22 20 22 27 36 44 40 47 58 64 63 64 58 50 45 42 42 47 39 37 42 61 69 68 69 73 69 65 79 83 77 68 60 52 50 48 51 54 58
21 21 21 21 21 21 27 48 46 42 45 54 62 67 69 64 59 52 46 46 44 42 45 38 40 48 55 59 69 74 77 77 77 85 83 78 69 54 44 46 54 54 64 74
29 28 26 23 29 54 54 44 45 55 61 62 62 65 66 64 58 53 47 48 49 48 40 40 46 54 55 61 84 95 99 88 81 80 70 61 53 46 48 56 60 67 73 75
25 26 32 52 50 44 46 53 58 63 63 64 63 65 62 61 65 60 54 53 66 57 46 43 48 52 66 81 97 100 100 93 82 73 65 53 47 49 58 64 72 81 85 79
45 60 55 50 56 60 65 67 68 67 66 65 60 65 57 58 66 72 69 74 68 49 43 41 49 57 69 86 88 100 93 84 72 65 57 54 55 64 73 81 90 87 82 84
62 54 60 68 74 78 82 83 79 75 71 67 54 67 44 57 66 82 86 78 66 70 50 50 62 66 75 82 91 90 87 82 69 66 67 65 72 76 80 89 92 83 88 91
62 71 77 85 88 90 98 98 75 76 72 72 62 81 58 58 69 88 81 74 98 74 57 55 58 66 70 91 95 93 86 71 74 80 76 74 77 84 84 93 88 92 82 71
69 72 84 89 96 100 100 77 82 78 70 61 63 67 67 75 79 72 68 100 100 67 68 69 57 60 68 97 99 86 79 85 85 76 76 75 79 80 92 94 97 95 72 60
70 74 81 92 96 100 100 90 69 64 68 63 63 68 76 70 62 64 77 100 90 69 69 70 59 64 79 100 96 88 88 83 77 74 72 74 85 92 92 100 97 76 57 42
79 84 95 96 82 99 100 100 93 75 76 59 66 72 70 68 68 82 92 68 68 76 71 58 59 71 98 100 92 88 81 76 73 74 82 86 93 96 99 95 69 51 43 25
84 82 82 85 82 95 96 87 75 73 70 96 97 88 82 81 83 78 77 77 63 61 58 59 66 87 100 96 91 83 77 75 89 84 82 89 100 100 94 70 57 40 27 21
88 90 90 77 75 81 75 75 73 74 82 95 100 100 100 96 79 68 59 59 55 55 60 70 86 98 86 88 80 76 77 84 86 95 100 100 99 91 67 53 38 24 18 15
74 68 68 70 73 63 66 70 85 96 98 97 92 85 67 56 59 59 54 54 56 62 72 78 80 74 77 78 82 84 90 98 100 100 95 97 94 68 49 37 27 20 17 14
71 63 67 68 73 65 69 68 73 92 100 92 74 53 51 60 55 54 53 51 60 68 65 68 73 79 79 82 90 94 100 100 100 100 78 71 62 56 41 29 19 16 13 11
72 64 74 81 85 73 78 100 89 86 81 71 61 57 53 52 52 56 60 69 70 69 71 72 78 79 84 96 100 100 100 92 80 76 58 54 44 22 18 18 15 14 13 12
90 78 77 92 100 100 98 75 73 75 55 54 52 49 54 63 67 61 64 70 74 71 70 77 83 91 94 97 100 98 87 72 60 52 48 33 24 25 15 14 14 14 13 9
100 100 100 95 92 96 100 99 88 68 58 52 56 68 72 67 53 65 76 73 69 72 79 86 90 94 92 86 83 83 57 50 42 37 37 37 26 20 15 14 14 12 9 8

GFSCGP_250_rhum_030.txt.gz
RH
86 100 100 100 100 100 100 96 100 88 99 100 99 87 89 83 80 100 80 75 96 100 100 87 98 100 100 83 100 100 81 77 94 92 100 90 87 67 52 49 46 27 26 32
88 96 96 100 100 100 100 100 98 97 90 94 100 100 100 95 98 82 86 98 96 99 100 100 100 83 100 91 96 95 82 63 64 59 49 44 42 37 32 31 34 36 36 32
88 97 100 100 100 100 100 97 85 90 98 100 100 100 99 100 91 98 98 100 100 100 100 100 100 96 90 72 60 45 37 42 46 43 36 35 31 26 25 26 28 30 32 33
84 100 100 100 100 100 100 92 89 82 92 96 97 98 93 86 94 93 91 73 76 76 76 74 76 42 26 42 51 40 25 28 31 29 26 24 26 26 29 32 35 38 39 41
91 98 93 100 100 94 90 90 96 98 99 100 100 73 87 98 73 91 69 65 40 25 17 16 42 51 42 24 31 33 29 27 25 26 34 37 40 40 38 42 53 61 68 70
96 91 100 93 94 88 92 87 90 100 100 100 94 68 100 76 59 81 95 79 43 46 54 44 26 30 39 35 30 28 30 37 45 41 37 36 36 36 39 49 53 58 62 59
92 96 93 100 96 98 98 89 98 100 100 90 99 97 59 20 71 100 100 99 46 26 24 31 42 39 33 30 30 33 34 37 34 36 35 36 41 38 44 51 67 76 70 74
76 97 100 91 86 97 85 79 82 70 53 57 64 46 32 47 62 76 92 29 32 43 45 40 38 34 34 36 39 41 36 37 39 36 33 36 41 46 51 55 64 74 78 69
72 80 79 78 76 72 48 29 22 34 49 67 57 81 74 45 29 28 36 46 46 42 40 39 35 35 37 39 43 44 40 40 42 36 35 38 45 52 56 59 68 83 81 80
54 68 46 45 39 31 31 49 36 81 77 84 66 42 30 29 45 47 43 40 38 39 40 43 41 41 41 47 54 49 43 39 41 40 38 42 41 55 61 66 78 88 87 83
21 25 22 20 17 17 31 26 58 73 70 42 26 36 41 49 45 41 39 40 42 44 50 52 54 53 49 48 52 62 63 45 48 58 54 50 56 59 65 78 93 92 86 76
43 57 51 36 63 67 80 84 61 46 30 33 49 66 54 48 42 40 42 47 56 63 64 65 62 61 67 71 65 68 75 65 81 78 69 74 61 66 81 86 70 72 68 71
69 62 66 79 81 73 58 46 33 27 40 64 62 51 48 45 46 55 59 62 66 66 62 55 54 61 62 63 61 66 89 82 81 85 81 59 65 83 78 67 68 68 74 83
31 30 37 44 34 34 34 30 33 49 74 58 58 44 60 54 61 63 66 64 56 55 64 56 56 58 63 63 60 58 60 62 68 59 60 70 75 68 71 65 68 72 74 71
29 27 24 24 26 31 35 36 53 75 53 62 46 58 56 58 68 74 80 72 86 79 60 69 70 64 57 55 54 51 56 53 58 59 71 66 63 74 72 70 71 79 72 67
42 34 32 36 37 35 44 68 71 58 47 64 63 68 67 73 77 74 68 61 58 72 74 68 78 75 66 57 49 50 49 54 60 73 68 62 70 76 75 76 79 66 71 79
42 28 28 32 33 62 70 56 51 56 67 70 79 88 82 63 58 85 55 56 66 70 69 77 75 67 57 51 48 48 51 58 71 68 61 61 77 84 84 77 69 67 78 72
38 32 44 47 61 67 53 54 62 72 70 70 90 97 97 74 71 59 62 68 69 66 66 65 57 57 65 60 50 51 55 68 68 62 65 82 92 92 79 71 72 67 66 64
42 58 65 64 63 58 59 66 66 76 63 84 100 85 75 74 73 61 63 68 70 73 85 72 66 63 53 48 51 56 73 72 66 72 86 92 92 80 75 80 69 71 63 46
46 58 81 64 60 65 65 67 66 68 65 82 84 81 79 72 63 64 62 66 84 97 78 71 58 53 53 58 62 67 77 72 72 74 87 81 71 76 66 56 60 55 46 39
58 58 76 76 75 74 74 73 76 76 80 85 98 91 88 78 75 73 83 97 95 79 70 64 61 58 64 66 80 89 76 77 86 86 76 75 70 60 69 61 55 50 46 40
68 72 73 81 84 85 80 75 76 81 90 98 89 85 80 76 94 97 96 87 98 87 62 58 54 63 72 80 81 72 77 80 81 74 68 62 62 68 76 60 52 45 36 29
77 88 86 83 83 88 88 89 79 90 100 83 86 81 87 98 99 92 89 83 84 72 56 49 53 65 75 78 73 83 86 78 68 65 66 72 76 67 55 46 35 31 30 24
66 94 93 93 87 83 89 83 77 94 79 77 88 100 100 99 82 85 86 76 65 57 52 56 70 78 71 77 91 81 72 72 71 75 75 69 66 58 42 32 28 23 19 16
70 94 88 100 92 96 70 69 76 65 83 100 99 84 78 80 84 86 73 67 70 65 64 76 80 68 82 79 74 73 74 68 74 74 68 64 42 32 30 24 16 12 9 8
93 90 83 86 96 92 59 63 80 100 100 92 75 71 76 73 75 77 72 69 65 72 79 69 70 73 68 72 72 67 68 72 65 60 55 38 31 29 24 19 19 14 11 8

GFSCGP_250_rhum_033.txt.gz
RH
70 95 96 100 99 99 100 100 77 90 100 100 100 100 86 100 100 92 83 97 100 85 99 97 100 100 95 92 98 100 100 100 100 100 100 97 98 89 89 80 78 74 68 58
59 93 95 100 100 95 100 100 100 100 100 98 90 100 89 84 98 96 99 100 100 99 93 72 79 100 100 100 100 88 83 86 88 94 93 93 81 68 59 54 45 38 28 25
68 72 93 97 97 87 85 76 90 100 100 90 92 82 78 100 99 94 86 88 90 90 85 90 97 100 100 100 100 97 98 87 68 70 68 65 56 41 34 28 24 22 25 27
67 77 76 80 84 85 81 96 100 100 100 100 100 100 99 100 95 91 99 100 99 100 95 87 72 81 84 96 90 86 76 66 46 36 38 34 29 27 24 25 26 28 28 37
60 68 79 87 94 90 98 96 100 98 98 91 82 87 85 78 57 53 73 93 95 96 73 76 74 60 52 36 32 47 46 39 32 30 30 27 26 27 29 28 27 30 35 39
53 60 81 86 90 94 83 100 96 97 100 100 95 99 98 84 91 91 100 76 43 54 76 97 70 52 49 43 35 32 32 33 31 28 28 29 30 27 26 27 30 30 32 39
88 99 92 89 68 87 100 83 98 98 92 100 92 88 62 73 83 99 61 33 26 41 67 94 77 42 34 36 39 38 32 28 29 28 29 30 29 28 27 26 27 30 35 40
100 100 100 100 100 86 94 77 92 99 89 84 84 84 72 80 76 84 50 59 53 92 88 56 24 38 45 44 38 33 34 34 35 38 33 34 33 31 30 28 32 40 58 55
98 100 97 86 100 99 94 79 88 99 95 80 81 48 49 22 39 53 57 92 100 100 98 34 49 50 45 40 37 37 37 39 43 47 48 52 48 44 38 44 55 68 59 59
71 98 92 77 74 83 95 78 80 70 40 33 31 54 63 46 36 51 44 38 83 87 42 45 49 50 50 46 44 45 48 54 62 66 67 63 50 50 60 63 66 59 64 61
36 43 55 48 62 70 70 65 53 35 52 83 62 99 98 68 42 34 33 37 44 41 46 49 42 42 44 46 47 46 48 56 61 63 59 56 53 59 58 56 56 60 66 59
25 25 28 30 36 35 43 25 20 57 36 86 68 85 58 34 34 43 51 54 44 46 46 50 48 47 50 49 51 54 51 50 57 70 64 56 50 50 48 53 65 67 61 58
62 49 26 37 37 16 20 23 38 62 91 94 69 42 34 34 53 55 49 45 47 49 48 50 50 49 51 56 62 63 66 70 80 72 56 49 45 47 51 59 67 64 59 66
69 68 74 66 57 70 81 73 82 87 75 53 31 25 57 42 50 54 57 54 54 49 53 48 44 44 48 57 68 86 92 80 65 56 50 46 48 49 56 69 67 60 68 79
44 47 46 48 42 44 52 56 56 52 36 26 23 40 62 50 54 64 66 68 64 74 69 50 51 63 65 66 66 56 46 46 46 48 47 48 55 62 68 69 65 68 75 79
29 25 23 23 22 24 26 25 23 23 22 25 33 60 44 48 68 69 62 54 57 59 52 62 67 59 65 71 64 61 54 48 48 50 53 65 62 65 72 68 70 76 76 71
35 42 50 48 40 34 33 25 33 32 27 49 53 48 63 60 55 63 80 99 94 78 77 80 78 74 73 71 65 66 57 54 52 51 62 66 72 75 70 74 80 79 73 65
48 47 62 41 30 31 24 30 36 44 54 56 68 72 69 71 71 66 70 74 78 74 73 74 73 78 80 70 76 77 64 58 53 60 68 74 71 70 75 80 76 71 66 60
54 51 55 41 39 34 31 42 64 57 55 65 75 75 76 85 80 82 86 85 74 71 70 63 68 74 71 68 71 73 69 61 62 67 71 74 72 77 87 76 73 69 63 65
47 52 55 47 51 64 75 68 62 56 60 77 77 76 76 74 74 81 79 70 67 69 70 77 94 93 83 79 78 71 71 71 75 79 78 76 84 85 71 70 71 64 64 49
45 61 61 60 60 80 80 68 62 61 62 73 77 72 70 73 82 84 76 82 82 77 75 79 79 67 73 83 88 84 70 75 74 71 74 77 78 73 78 72 66 61 44 38
46 56 56 65 65 74 86 88 76 74 78 85 76 75 80 87 92 86 82 82 77 75 87 79 75 77 82 89 87 68 71 72 68 72 73 66 76 86 73 66 57 38 33 34
40 46 52 64 72 76 84 81 87 93 95 78 82 84 88 87 85 82 96 99 91 86 81 89 95 88 90 88 67 73 75 66 72 64 63 81 88 77 71 57 38 33 33 26
46 50 56 57 63 85 84 91 92 99 97 91 92 94 93 90 80 100 100 93 86 75 75 80 84 94 90 68 75 74 67 71 67 73 86 92 85 71 58 44 33 31 22 15
48 52 56 68 56 75 83 94 98 100 98 92 95 100 83 84 100 100 99 84 74 72 75 82 89 90 66 72 74 68 71 74 78 82 92 90 72 64 51 33 29 22 14 10
60 68 66 68 89 77 72 75 78 84 86 94 98 80 97 100 100 89 74 67 70 75 80 89 85 63 72 70 70 74 76 81 84 90 81 75 63 44 30 27 21 16 10 10

GFSCGP_250_rhum_036.txt.gz
RH
52 58 82 100 95 100 94 100 100 100 78 73 94 100 100 100 93 97 98 100 100 100 100 100 92 98 100 100 100 92 92 87 86 95 100 100 100 100 100 100 100 93 92 88
54 70 75 92 94 90 100 100 100 100 92 94 92 81 97 82 79 86 79 82 92 100 100 100 100 100 96 87 87 79 77 71 81 83 96 100 98 100 93 88 87 82 70 57
67 77 85 70 96 96 100 93 100 99 98 100 100 100 95 100 84 83 95 100 94 80 88 100 100 100 100 85 85 85 85 100 99 97 94 95 91 85 83 78 64 49 39 32
62 77 94 90 98 100 100 100 90 100 100 100 100 100 68 79 99 99 91 90 88 82 96 94 77 75 77 79 88 86 75 94 100 92 79 65 56 47 42 37 34 30 27 26
60 76 77 79 83 85 99 98 85 100 100 98 89 88 94 95 83 100 100 100 91 75 80 90 84 82 80 73 70 71 84 94 79 58 42 51 39 34 29 29 28 26 27 27
68 59 57 63 78 83 80 73 93 100 100 78 71 89 100 98 98 98 89 100 98 98 92 67 65 54 61 51 68 99 99 86 64 51 32 33 34 30 28 28 30 28 29 29
48 74 84 98 98 81 80 79 81 94 100 75 73 64 59 68 84 82 55 57 82 63 60 52 30 52 50 60 71 65 87 74 38 38 38 32 31 33 32 33 36 37 32 36
32 56 86 83 84 91 95 84 99 98 93 71 82 72 75 78 86 87 75 58 50 16 20 28 51 61 67 46 63 74 47 42 40 37 36 38 39 38 40 39 36 36 39 37
26 42 71 93 89 84 90 85 75 80 78 77 73 82 98 86 82 80 52 15 11 23 43 49 58 74 84 64 57 47 45 44 43 45 42 41 39 42 40 40 44 43 42 43
25 30 54 59 83 87 80 76 100 100 100 79 69 74 70 59 50 55 43 49 47 54 53 55 79 98 82 38 47 50 51 55 49 44 49 52 51 45 42 53 53 48 48 46
19 22 29 32 55 71 89 79 71 89 91 71 56 35 21 23 28 66 65 50 49 40 34 55 53 45 52 54 52 48 46 44 48 57 60 56 48 46 49 50 48 51 55 53
24 18 22 21 24 37 48 70 72 73 70 65 40 29 20 15 18 60 60 36 37 55 61 55 56 60 56 58 54 46 42 47 54 55 51 50 56 55 60 62 54 55 60 62
35 31 21 19 19 18 32 29 28 47 43 40 26 16 25 33 53 54 43 64 70 52 47 56 56 55 58 60 53 50 56 59 57 63 72 79 75 58 63 60 54 61 61 59
54 50 37 41 36 35 59 53 47 41 47 41 54 48 51 56 39 39 44 54 49 50 56 59 64 64 57 56 71 79 77 81 81 80 79 64 58 62 64 57 58 55 59 64
62 58 47 49 50 56 64 70 63 67 69 67 48 58 41 36 35 69 72 49 45 53 46 44 48 53 67 70 60 53 55 54 57 59 53 58 61 64 58 55 60 64 63 70
61 54 43 40 39 35 32 33 30 30 33 30 26 44 31 35 82 78 58 54 65 69 74 75 78 71 58 43 45 52 54 52 48 50 63 62 59 61 62 66 73 68 75 70
67 42 35 30 28 25 29 26 28 27 25 27 29 31 34 48 60 57 64 72 74 65 55 61 59 53 50 55 60 58 54 54 58 61 65 70 82 71 66 70 68 67 66 67
78 39 31 31 31 43 44 39 35 32 34 43 45 45 61 57 51 57 70 75 74 75 77 83 80 77 81 67 60 62 63 63 73 74 76 82 72 65 67 65 67 69 74 84
86 48 35 30 39 53 46 31 27 27 32 44 75 81 66 56 62 69 73 70 72 76 80 80 83 76 72 74 74 82 78 78 77 79 84 82 65 66 71 75 68 73 83 92
89 47 35 35 50 58 57 49 29 48 70 81 74 69 71 74 78 81 76 75 77 74 76 77 75 79 86 91 91 94 74 68 72 84 90 75 73 77 77 74 71 86 100 100
92 42 33 31 58 64 62 47 44 71 94 85 79 72 66 70 76 76 80 80 77 80 85 87 90 99 93 87 92 80 68 78 91 91 79 71 73 80 73 75 92 100 100 89
98 56 34 30 41 64 63 58 71 92 99 85 76 76 80 85 91 94 90 87 85 90 89 88 94 90 83 79 76 70 74 82 80 78 71 75 85 74 83 94 100 98 90 75
98 69 35 30 31 57 65 80 85 84 85 90 100 99 100 100 100 98 96 97 94 88 89 94 95 92 84 80 73 75 83 83 82 73 75 87 76 80 85 97 97 88 76 49
98 70 39 34 34 51 59 69 94 93 87 87 86 90 99 100 96 99 100 99 91 85 93 96 92 85 81 77 77 84 83 82 69 70 84 74 74 84 99 100 81 74 50 34
95 81 47 42 40 42 54 62 74 89 98 94 94 100 99 96 92 85 84 88 92 89 96 96 90 84 80 78 82 83 80 70 72 80 73 79 87 96 99 80 71 50 36 27
100 88 68 54 49 50 54 54 60 67 76 92 100 100 99 99 98 100 100 99 90 84 85 82 82 79 79 80 80 78 75 73 83 78 79 81 92 96 76 70 49 40 27 20

GFSCGP_250_rhum_039.txt.gz
RH
35 51 74 70 83 81 98 100 100 100 100 100 100 99 100 100 100 100 100 84 100 100 94 100 100 100 100 100 100 100 100 100 100 100 100 100 100 100 100 100 100 100 99 85
36 43 79 88 98 100 100 100 100 100 100 100 100 100 100 100 100 94 95 90 88 100 100 100 100 100 100 100 100 100 100 100 100 100 100 90 86 100 100 96 100 98 85 76
30 45 71 97 99 92 100 100 99 97 100 94 100 100 100 100 100 95 88 94 100 100 98 99 98 94 100 100 100 100 100 100 100 98 98 93 99 95 85 87 86 76 60 47
24 46 64 83 77 90 87 100 100 92 84 89 100 100 100 72 70 81 77 80 98 100 100 98 93 92 91 96 91 100 100 100 87 82 72 72 71 65 68 65 57 46 39 34
23 32 62 74 83 80 72 74 93 95 85 96 100 100 100 100 89 100 98 100 100 100 100 100 89 72 73 71 68 70 70 68 67 67 66 66 61 58 53 53 37 36 35 32
29 19 55 59 80 95 93 87 98 99 89 91 94 100 100 98 86 92 92 100 100 86 90 88 96 90 92 69 62 61 49 41 49 82 93 84 94 81 41 40 38 34 34 38
35 20 26 75 78 94 100 100 99 87 85 72 68 76 85 96 100 100 100 99 79 70 57 49 54 57 67 64 72 93 85 98 100 100 96 96 73 41 37 36 37 41 41 39
35 25 23 62 70 79 91 98 100 98 83 81 98 91 76 78 70 70 76 83 81 75 66 60 64 46 58 86 97 100 100 100 100 100 86 48 42 40 40 40 38 41 45 44
35 31 23 26 68 62 76 82 84 88 84 66 69 86 88 79 78 64 61 63 62 61 24 22 12 16 70 100 100 100 100 99 93 58 45 44 44 44 37 39 45 54 50 46
34 31 24 25 34 46 60 86 71 74 73 74 75 89 99 83 69 62 45 44 30 21 31 49 51 59 59 71 81 78 84 62 47 46 48 45 39 40 44 48 56 57 53 54
46 37 29 28 25 22 33 72 86 89 78 70 81 100 91 78 62 35 28 33 34 40 52 46 48 38 39 44 49 55 50 47 48 47 43 44 43 41 46 47 55 66 64 69
40 43 30 21 26 29 34 33 42 61 78 81 72 73 68 63 52 42 49 40 66 63 46 48 54 62 59 60 57 49 50 48 47 54 34 34 40 46 51 60 65 63 64 60
45 48 37 24 28 28 24 26 42 51 48 40 21 31 60 45 61 75 98 85 77 55 43 61 69 63 58 59 49 46 48 45 44 45 55 63 67 63 63 59 62 61 60 61
46 44 46 42 28 38 33 25 22 32 35 21 17 13 24 60 70 99 100 77 47 40 47 59 61 68 82 78 76 85 79 91 96 91 84 70 62 61 60 64 66 66 67 64
46 46 49 50 47 41 43 49 48 56 55 52 52 74 78 82 97 81 59 48 49 53 79 77 73 84 88 75 75 89 100 100 91 75 67 61 61 62 61 59 63 67 71 71
47 42 43 59 62 47 45 42 41 40 31 26 28 34 40 41 61 44 36 37 54 84 85 70 72 72 75 89 90 86 86 76 70 63 56 56 64 60 52 55 65 73 80 74
48 47 49 53 62 47 36 32 34 26 29 30 31 29 28 27 31 32 30 46 77 80 67 70 77 80 80 75 69 68 63 65 66 58 59 57 54 56 59 67 76 82 77 80
51 45 50 50 59 42 32 34 35 39 39 46 46 41 34 31 36 38 52 80 73 60 66 75 76 73 68 64 65 68 70 63 53 56 57 59 65 69 72 79 84 76 72 80
50 44 45 47 74 39 31 35 43 44 50 49 47 32 27 27 31 56 72 73 66 68 70 71 69 70 74 75 78 78 73 67 69 72 74 74 77 74 78 71 77 74 84 85
50 46 45 53 84 48 32 36 43 42 68 72 40 35 35 48 54 61 59 58 62 66 70 73 78 84 84 79 76 73 81 79 82 80 80 84 76 79 83 85 81 86 91 86
54 51 51 52 82 59 39 35 52 57 80 54 47 50 65 77 80 73 67 67 69 73 86 96 87 79 78 84 87 92 92 96 93 88 88 87 85 82 82 84 87 89 94 96
60 58 58 55 74 75 50 36 40 69 65 49 48 64 74 85 91 89 89 93 99 100 92 86 88 90 92 97 89 90 98 99 100 96 90 89 82 83 84 84 86 96 97 97
65 58 66 69 88 89 65 44 31 35 60 64 55 62 73 84 94 95 88 82 80 82 89 93 96 97 100 88 87 96 96 91 88 88 90 83 85 82 83 85 92 95 93 86
64 78 68 78 100 98 78 55 40 33 44 62 61 61 83 98 95 91 91 90 92 90 86 90 90 91 84 86 92 89 87 87 87 88 83 84 79 84 83 86 90 90 86 70
70 74 84 79 100 98 88 63 45 43 46 51 57 63 69 81 87 87 88 95 92 90 85 89 98 92 92 94 89 89 90 88 90 83 83 81 86 82 84 85 84 80 69 53
95 100 97 82 90 100 96 85 67 56 52 56 70 76 77 76 76 78 89 93 92 85 90 97 93 95 91 88 87 82 81 86 85 86 83 86 81 82 80 77 76 66 55 48

GFSCGP_250_rhum_045.txt.gz
RH
44 25 22 24 28 48 62 75 99 98 82 70 78 92 91 100 100 100 92 100 100 100 100 100 100 100 80 87 100 100 100 100 100 100 100 100 100 100 97 100 100 82 100 100
46 29 25 25 30 47 68 77 77 99 100 100 72 75 90 100 100 100 88 90 100 100 100 100 100 100 96 66 60 58 85 96 93 91 90 84 95 98 97 78 75 91 100 96
48 36 26 25 28 47 60 65 90 92 87 100 100 100 88 92 100 100 100 100 91 100 99 98 100 100 100 100 97 84 76 69 62 66 76 71 91 72 73 79 100 100 95 72
54 44 26 25 30 35 55 70 79 100 94 98 100 100 100 98 100 100 100 100 100 100 100 100 100 100 94 95 100 100 100 99 96 88 90 95 85 93 88 89 86 87 73 63
61 46 32 25 28 30 31 68 82 92 99 97 93 89 92 82 76 92 100 100 100 100 97 86 77 75 88 67 67 80 91 93 93 90 84 85 77 74 93 80 67 56 54 66
61 37 34 28 28 31 29 62 73 98 99 94 86 68 78 88 85 98 87 82 92 97 94 88 81 81 91 83 83 83 91 92 90 94 94 93 82 72 66 69 68 62 58 62
52 42 39 30 29 31 29 39 74 83 94 98 96 81 93 98 88 94 100 98 98 87 77 60 69 88 89 92 90 80 73 71 72 72 68 80 84 88 81 90 94 96 77 71
64 53 44 31 30 30 33 26 60 72 88 99 100 87 89 91 97 100 100 100 99 100 95 95 94 85 74 81 91 86 74 74 82 97 100 100 100 89 100 100 100 82 63 48
72 65 49 34 32 31 35 28 28 69 77 99 100 100 100 94 92 98 98 100 92 99 93 88 83 88 99 100 99 85 71 58 55 69 82 92 97 100 100 88 69 61 57 56
82 68 50 37 34 30 36 36 27 42 78 92 100 100 100 90 99 100 100 97 90 91 87 83 82 85 87 80 79 63 70 84 75 83 90 100 100 88 80 93 100 90 64 65
78 66 50 43 39 32 34 39 35 27 72 85 90 99 100 98 94 93 100 100 100 100 100 92 90 82 68 57 66 66 67 77 97 90 75 77 96 100 100 100 100 80 90 92
77 71 59 49 40 33 36 42 41 28 33 87 100 95 72 91 100 94 92 97 100 100 100 100 91 73 59 68 70 54 49 55 68 75 96 100 100 100 100 98 99 85 78 85
79 80 68 51 44 35 36 46 45 34 31 41 77 82 79 88 89 98 100 100 100 99 94 86 70 51 59 88 73 61 54 71 86 100 100 100 100 98 90 86 66 63 72 81
88 86 67 57 44 36 40 45 43 38 49 44 39 43 53 70 74 74 71 74 68 58 57 62 38 54 76 86 71 67 70 85 92 94 100 99 87 81 72 67 57 71 80 79
89 96 72 67 41 40 45 42 44 38 46 49 51 59 33 50 68 70 67 45 37 37 30 43 56 59 69 61 59 70 83 82 87 91 89 84 75 69 57 61 80 95 98 97
100 98 66 65 43 43 55 36 45 39 44 54 45 76 63 61 71 84 90 85 81 70 63 51 37 50 54 43 46 69 86 95 86 71 67 67 73 80 83 96 100 100 100 99
92 91 76 60 46 57 65 44 42 48 40 59 41 44 46 46 42 36 29 34 53 50 38 32 28 28 33 31 34 53 74 77 69 63 68 76 82 85 94 100 100 100 96 70
100 99 70 54 56 79 55 46 44 52 40 51 38 34 34 32 33 32 44 50 47 52 57 46 35 31 31 34 36 49 67 71 75 80 82 87 88 84 95 100 100 94 72 71
93 81 58 61 70 81 76 48 46 42 54 46 51 42 38 42 52 59 56 55 57 52 45 46 52 53 48 41 40 56 78 91 95 94 92 87 82 96 100 94 78 69 75 80
76 74 69 74 87 81 83 64 49 49 57 43 58 48 39 43 55 69 73 68 61 53 47 50 54 63 74 83 94 100 100 98 93 81 77 91 93 88 71 69 76 80 84 87
82 79 84 86 89 90 100 60 56 52 61 50 52 75 54 35 40 59 66 67 64 67 70 67 77 83 84 85 86 84 84 84 88 94 93 90 83 77 82 86 88 84 93 96
100 99 84 82 78 97 67 82 57 65 55 55 52 79 88 58 35 33 39 48 58 64 67 67 69 74 79 82 84 85 88 87 89 93 91 84 84 87 86 87 95 100 100 100
100 100 100 65 74 82 89 70 75 69 63 56 50 64 100 94 66 50 40 30 32 38 46 56 59 60 64 70 77 87 98 100 91 80 80 81 81 86 94 99 98 98 97 100
100 100 100 82 89 79 89 96 74 82 75 58 56 64 88 96 89 86 74 63 49 48 50 54 58 62 70 85 88 85 80 79 80 80 82 85 88 87 87 87 95 98 94 91
100 97 91 77 100 97 84 80 90 96 77 72 66 67 74 87 85 81 85 89 91 93 93 91 90 89 87 84 79 74 72 75 81 82 81 82 82 85 84 86 86 84 89 88
100 100 100 94 89 85 98 86 94 88 73 77 85 79 73 72 82 83 79 77 75 73 73 72 71 70 70 71 71 70 72 78 86 94 94 88 82 84 90 93 93 94 86 80

GFSCGP_250_rhum_048.txt.gz
RH
91 84 71 53 29 25 26 49 57 65 76 85 94 83 100 100 98 95 88 100 99 96 100 100 100 100 100 90 100 100 100 100 100 100 100 100 100 100 100 100 94 93 100 93
97 92 74 55 32 27 26 40 53 69 76 61 98 75 99 100 100 86 90 92 94 95 93 100 100 100 89 87 74 89 100 100 100 100 100 100 100 100 100 99 92 89 93 93
100 92 74 52 34 29 29 32 53 59 82 100 90 77 72 93 100 99 91 71 94 92 84 100 100 100 100 100 89 75 73 85 100 100 100 100 100 100 87 89 82 77 79 78
100 90 77 52 36 31 26 29 49 61 70 100 100 100 93 90 84 97 100 100 100 100 96 100 94 100 99 100 100 95 84 85 62 58 71 70 71 71 62 57 59 73 79 76
100 96 86 59 42 32 29 30 35 65 69 90 100 99 88 72 70 83 91 100 100 100 100 98 100 68 85 90 83 85 77 77 86 99 100 83 86 87 76 72 73 76 66 67
94 98 99 70 48 34 33 30 30 48 75 74 82 92 88 76 90 83 84 100 100 100 100 83 82 77 70 69 67 67 64 65 62 62 62 68 65 60 64 69 72 76 76 78
91 88 96 77 53 36 36 30 32 36 57 76 72 82 97 95 97 99 79 74 90 100 100 99 100 99 91 87 84 70 75 71 67 67 62 60 59 77 72 68 79 81 88 96
85 85 96 83 59 42 39 30 34 32 39 74 80 77 92 100 100 100 100 96 83 91 100 87 99 100 100 100 100 94 95 85 72 80 82 79 78 100 100 97 98 99 100 98
80 89 94 88 62 45 42 32 37 41 34 58 78 65 63 96 100 100 100 98 90 71 71 66 70 76 85 95 97 82 77 82 86 95 80 88 86 100 100 100 100 100 97 93
99 100 94 92 67 51 46 37 36 40 47 41 76 72 57 63 97 100 100 92 100 100 93 88 79 81 75 77 79 86 99 100 88 73 51 71 96 100 100 100 100 93 100 100
100 94 95 93 71 61 49 43 36 40 46 46 42 70 75 67 66 95 100 92 89 93 92 88 75 70 66 66 73 83 82 68 60 54 65 89 98 100 100 90 98 100 100 100
92 86 100 97 80 69 53 45 38 40 41 52 62 80 84 74 87 85 90 75 77 81 79 75 65 66 65 71 81 79 63 58 59 55 53 60 72 77 86 100 100 100 100 100
83 100 96 100 78 70 60 45 36 38 46 48 49 64 42 50 68 89 79 68 71 75 69 80 82 83 87 97 89 76 69 86 78 62 58 60 72 83 100 100 100 100 100 100
83 100 100 96 73 80 67 47 36 39 44 45 52 56 46 38 36 63 80 85 85 81 92 94 90 94 95 91 86 89 98 92 78 74 72 74 79 94 100 100 100 99 90 83
76 99 100 90 78 89 70 53 38 40 41 54 51 48 53 47 41 39 53 64 58 39 39 42 39 70 94 93 100 99 98 93 86 81 87 84 92 100 100 100 97 82 75 67
97 100 100 100 88 76 77 55 42 40 45 44 50 62 54 53 49 58 58 67 77 77 71 65 65 75 80 94 98 96 89 83 65 65 82 93 96 100 100 94 89 75 67 64
100 100 100 98 79 84 93 53 46 44 46 39 47 44 45 54 44 46 53 54 52 50 38 32 32 43 45 34 39 45 52 51 49 45 52 80 95 96 94 87 77 69 74 86
100 100 99 96 77 92 85 62 47 52 48 39 40 51 58 46 33 33 33 34 46 58 56 53 45 41 43 44 41 40 42 45 48 48 48 51 67 81 83 76 77 89 95 100
100 100 100 82 98 97 97 62 48 53 54 36 60 49 49 56 50 37 39 42 51 57 48 43 44 50 51 49 48 47 48 51 61 69 74 79 80 80 86 92 98 100 100 100
100 100 99 100 100 98 100 61 53 48 73 40 53 64 55 52 65 60 40 45 52 56 60 66 70 69 66 67 71 75 78 81 82 83 86 89 91 94 100 100 96 92 100 92
100 100 100 100 93 98 100 84 55 51 60 51 56 63 64 55 49 72 86 50 33 38 59 73 75 77 80 80 84 92 94 97 98 98 99 100 100 100 95 97 95 89 95 92
100 100 100 100 88 98 100 63 56 61 68 62 70 66 73 64 52 52 62 89 79 43 36 34 33 37 47 59 69 80 90 97 100 99 96 93 91 88 86 90 91 84 77 71
100 100 100 100 94 96 76 66 74 68 71 84 91 68 78 73 59 57 55 76 96 94 80 65 51 43 43 49 62 68 75 78 79 80 80 85 89 85 76 75 71 78 82 88
100 100 100 100 100 89 68 68 68 60 73 100 91 77 86 82 68 61 62 62 76 95 100 96 88 80 76 81 80 82 80 75 69 76 80 79 79 82 84 87 97 99 100 100
100 100 100 98 100 88 72 71 70 90 100 100 87 92 98 90 72 66 71 69 68 75 94 96 93 88 79 82 92 90 96 98 95 75 72 77 80 87 87 91 99 95 85 81
94 99 100 100 100 81 80 83 87 99 100 91 95 100 100 88 74 79 87 93 78 75 77 82 90 92 92 90 83 78 71 68 72 71 75 82 85 92 94 94 79 78 68 61

GFSCGP_250_rhum_051.txt.gz
RH
80 84 100 90 83 57 34 26 25 55 55 67 80 81 90 100 75 96 85 100 89 96 95 100 100 100 100 100 100 100 100 100 100 100 100 100 100 100 100 100 100 100 100 100
88 98 100 92 92 65 42 30 26 38 63 54 76 81 71 95 95 92 100 100 100 93 100 100 100 86 84 100 80 86 100 100 100 100 100 100 100 100 100 100 100 100 100 100
100 100 100 99 86 79 47 31 27 28 65 60 54 63 92 100 98 100 93 98 100 93 100 100 100 100 100 82 79 65 56 90 100 100 100 100 100 100 100 100 100 100 100 98
100 92 100 100 86 78 53 34 30 27 51 67 66 58 69 82 87 98 93 98 88 90 82 75 100 100 100 100 100 100 100 75 68 100 100 96 100 99 100 100 96 98 100 94
80 100 89 100 91 79 70 38 31 28 30 71 70 98 76 75 78 64 87 71 98 100 100 81 76 93 100 100 100 100 100 100 100 97 90 77 86 93 80 74 67 62 66 72
77 100 91 100 86 81 75 42 34 30 31 32 75 73 68 80 80 77 82 77 76 96 82 100 99 100 100 100 98 88 86 71 78 75 72 67 57 47 52 61 74 80 72 64
74 99 94 78 77 87 84 47 40 34 30 31 45 88 76 63 69 74 86 83 86 100 100 100 96 86 78 62 59 55 50 68 71 52 54 57 54 59 62 54 51 53 51 50
100 100 100 71 86 87 88 57 46 39 35 34 37 60 92 82 68 65 81 93 76 67 71 93 87 80 84 78 68 62 70 88 79 72 85 79 82 65 53 62 55 55 52 59
100 85 91 71 82 100 87 73 52 44 36 32 37 32 72 84 69 72 70 84 98 100 84 75 87 82 75 90 90 79 77 77 72 68 92 100 100 79 62 68 58 49 81 100
100 100 100 80 100 100 75 86 63 51 36 35 31 36 33 76 70 63 64 81 100 88 93 85 77 79 79 87 87 82 76 73 72 68 64 67 61 54 63 58 77 100 100 100
70 68 64 69 100 100 92 99 76 56 40 37 34 40 38 34 65 79 65 68 74 75 74 97 100 98 98 91 90 88 86 87 80 77 68 61 50 50 64 60 82 98 100 100
100 100 51 87 98 94 100 100 84 64 46 39 39 47 37 36 37 90 97 77 64 60 60 57 62 72 69 68 67 64 74 79 79 78 82 68 69 67 66 71 87 99 100 100
100 98 60 100 100 89 100 100 85 74 50 42 41 46 38 41 37 51 62 85 80 69 71 64 58 58 62 61 63 65 77 89 93 90 78 58 49 73 68 64 60 59 66 75
100 100 96 61 79 94 100 100 81 77 59 43 44 38 45 41 36 43 59 63 78 79 74 84 82 81 86 77 72 72 74 70 72 62 74 86 86 88 84 86 78 79 83 87
96 100 100 71 100 88 100 100 89 75 61 46 43 42 40 42 40 46 56 70 61 55 47 42 38 44 43 44 51 52 59 63 70 80 93 94 99 92 84 76 70 69 73 80
95 100 100 69 100 74 98 100 84 77 68 53 41 42 42 51 44 43 54 56 69 65 63 66 70 63 52 56 67 68 72 88 92 83 92 96 96 77 62 53 49 67 88 97
100 100 97 74 100 75 99 100 96 80 62 54 44 40 49 47 47 43 44 52 45 49 53 50 46 40 34 29 30 31 51 73 78 61 56 54 57 58 60 63 66 69 74 84
100 87 100 92 80 62 100 100 96 84 61 56 46 46 46 49 48 50 46 50 49 34 34 36 38 46 46 43 43 43 45 47 51 56 60 69 77 86 91 93 93 93 97 100
99 100 100 76 79 100 100 100 100 80 74 54 48 54 50 49 45 50 60 49 57 55 39 44 61 64 59 58 58 60 66 73 77 78 83 90 93 95 96 98 100 100 100 100
99 95 100 76 81 90 100 100 100 65 87 42 51 63 55 56 56 57 66 61 48 56 73 49 42 46 55 66 75 80 82 83 83 84 84 86 90 95 95 93 91 90 93 100
100 94 90 98 93 95 100 100 100 83 100 43 61 51 54 58 60 55 64 71 61 53 52 70 89 69 43 37 40 42 42 45 51 63 68 72 73 75 80 91 99 88 84 85
100 98 99 100 70 86 100 100 100 99 83 66 54 50 48 69 63 59 75 80 73 63 57 57 63 91 98 87 70 58 50 47 47 52 64 86 99 100 97 96 98 96 72 69
96 91 93 100 99 100 100 100 100 100 82 82 67 49 60 81 84 81 68 76 81 76 61 61 66 69 80 92 98 100 100 99 100 100 92 99 100 100 96 80 70 71 75 70
94 100 88 95 100 100 100 100 100 100 91 79 63 62 80 70 95 100 98 95 82 85 72 70 78 90 76 87 96 99 99 93 90 84 80 81 80 68 66 69 68 62 68 75
98 98 93 92 100 100 100 100 100 100 89 85 71 58 66 68 93 100 100 100 97 99 95 72 74 75 83 87 81 80 74 75 79 80 73 75 75 67 64 64 64 77 87 88
100 100 99 100 100 100 100 100 100 100 84 72 66 67 67 84 100 100 100 100 94 100 100 90 82 74 86 83 91 85 77 70 64 63 66 69 65 63 66 66 74 81 77 72

GFSCGP_250_rhum_054.txt.gz
RH
33 36 72 80 100 97 78 70 38 32 26 51 62 59 52 95 82 61 72 74 87 95 93 96 100 100 99 98 96 96 52 66 100 100 100 100 100 100 100 100 100 100 100 93
32 30 66 100 77 100 95 76 41 40 27 28 62 64 64 78 100 86 72 99 93 97 83 90 100 80 93 89 99 100 100 100 81 78 100 100 100 100 100 100 100 100 100 100
28 28 33 100 90 100 100 74 56 42 32 26 45 64 58 68 94 87 99 99 100 90 67 100 100 100 100 100 100 100 96 98 100 100 100 100 100 100 100 100 100 100 100 100
58 30 23 49 100 100 97 65 74 40 41 30 26 59 66 65 85 95 100 89 87 100 79 95 100 100 100 80 82 100 86 58 89 100 100 100 100 100 100 100 100 100 100 100
98 58 24 46 100 100 80 59 79 49 40 39 27 37 62 73 65 71 64 68 66 84 80 74 82 99 100 100 98 74 52 83 49 48 60 94 94 92 100 100 99 100 100 100
100 78 35 43 100 100 93 62 72 70 43 45 29 29 36 80 76 62 70 60 85 67 96 100 86 66 80 88 99 100 100 100 100 100 100 88 86 100 99 96 88 83 81 72
100 95 49 33 80 99 100 68 67 82 60 48 39 28 28 61 72 76 67 62 68 71 74 93 95 100 94 86 100 100 100 100 92 80 64 76 75 80 70 69 63 52 48 49
100 99 65 33 95 96 100 69 100 100 78 58 44 32 29 34 40 59 80 63 66 95 75 100 100 95 96 82 65 64 65 62 60 65 74 71 62 73 79 93 62 87 100 82
100 98 80 46 84 87 66 84 100 100 74 77 50 42 33 34 31 37 71 86 68 52 50 59 62 66 94 91 78 81 95 82 72 77 83 73 100 79 100 89 81 97 89 94
100 98 84 48 43 100 100 76 100 100 100 95 65 47 35 34 39 36 30 82 84 89 83 75 92 66 60 75 77 70 64 63 63 72 62 61 70 100 100 100 94 100 100 83
100 97 87 67 46 100 56 48 96 100 100 100 71 56 42 35 32 44 37 46 64 71 76 98 94 77 96 76 76 72 71 67 60 67 81 92 98 86 64 69 88 82 71 65
100 100 98 69 42 59 77 62 61 100 99 100 73 68 51 40 34 38 44 37 33 51 69 68 77 90 70 83 93 100 81 66 64 98 100 98 74 87 75 86 80 62 68 68
100 100 100 76 40 86 100 96 77 100 97 100 90 78 59 41 39 34 40 41 37 36 41 43 73 82 73 67 58 58 66 70 58 59 82 100 100 89 88 88 78 69 55 59
100 100 100 76 43 94 100 97 65 73 93 100 99 69 70 49 42 37 32 44 43 37 30 44 36 34 38 52 67 70 64 57 44 61 59 62 68 66 66 64 58 62 62 63
100 100 100 94 43 75 100 100 96 44 100 100 100 54 76 57 45 41 38 34 45 43 49 40 39 46 35 29 33 41 46 53 59 53 78 73 75 72 69 80 73 72 71 81
100 100 100 98 50 62 100 100 100 76 78 73 100 78 60 64 48 44 39 40 40 44 48 54 49 41 49 50 46 43 55 68 65 66 54 49 49 50 64 71 70 54 45 48
100 100 100 100 53 53 87 100 100 93 84 100 100 100 69 73 52 45 42 38 42 43 44 48 48 43 40 49 60 83 62 48 44 38 37 37 39 39 39 47 62 71 80 81
100 100 100 100 56 52 94 100 95 66 100 88 100 99 69 84 56 49 44 41 40 43 46 43 42 53 53 54 60 47 48 53 49 46 42 42 46 54 64 68 68 65 67 73
100 98 100 98 66 62 69 100 99 96 80 77 100 98 69 89 60 52 46 44 38 40 50 55 54 51 52 63 57 48 47 47 50 54 58 61 64 64 63 59 53 57 66 77
76 82 96 88 60 63 96 100 100 100 67 100 100 100 85 82 65 56 53 45 48 46 46 53 55 56 53 51 56 77 88 78 57 45 40 38 36 34 36 47 53 65 94 99
65 68 69 72 48 73 100 100 100 97 98 86 90 98 96 84 67 66 51 51 57 49 48 55 61 66 65 63 58 50 54 63 77 88 90 89 88 86 87 97 99 95 99 95
48 48 50 55 49 78 100 100 100 100 98 94 90 100 100 100 87 73 56 52 56 56 85 92 69 67 70 76 70 68 64 60 60 65 75 89 100 100 99 99 94 87 77 73
40 48 58 54 51 87 100 100 100 100 80 58 85 100 100 100 98 79 62 49 57 66 96 100 97 95 93 98 84 70 70 81 79 80 76 74 78 79 89 86 80 78 71 73
43 49 52 53 56 97 100 100 100 83 75 81 86 96 98 94 100 86 63 58 60 59 76 99 93 84 100 95 82 82 82 78 91 99 87 80 87 87 81 74 70 74 80 80
50 57 52 58 65 95 100 100 100 81 76 78 91 100 100 98 100 86 64 64 61 52 71 98 99 97 100 100 92 85 94 92 88 75 87 83 77 77 79 85 97 95 93 80
58 62 63 79 82 82 100 98 100 96 88 100 100 100 100 100 100 93 78 66 65 55 54 97 100 100 100 100 100 100 95 83 81 77 82 83 83 83 88 89 87 81 82 70

GFSCGP_250_rhum_057.txt.gz
RH
94 76 39 29 31 57 40 100 84 58 45 41 36 33 58 100 89 87 100 100 70 56 81 80 87 91 63 47 45 44 50 100 100 100 100 100 100 100 100 100 100 100 100 100
97 87 58 36 28 24 44 100 82 51 58 42 42 28 28 56 78 87 92 100 89 63 74 86 79 100 100 77 74 57 47 70 96 86 97 100 100 100 100 100 100 100 100 100
100 100 85 54 48 37 26 91 100 68 61 49 47 38 29 53 85 96 100 82 91 96 80 74 77 100 100 100 80 71 81 50 54 47 49 74 100 100 100 100 100 100 92 92
100 100 100 80 72 56 29 100 100 88 60 66 54 48 27 40 53 99 100 94 70 100 89 67 70 100 100 99 92 79 100 100 100 100 100 100 100 100 100 100 100 100 100 100
100 100 100 100 78 75 46 26 97 91 56 73 66 53 40 29 34 60 55 59 58 64 62 91 68 100 100 100 78 94 100 100 100 78 96 100 100 100 100 100 100 100 100 100
100 100 100 84 100 100 67 46 30 81 61 100 62 62 46 41 29 33 64 62 67 62 56 60 76 69 100 100 100 72 64 73 65 52 48 70 89 92 99 100 100 100 100 100
100 100 100 100 100 100 79 71 41 29 58 100 97 53 59 50 34 29 50 80 63 58 67 64 66 96 78 79 92 100 99 100 100 98 86 96 98 100 87 80 93 94 91 85
100 100 100 100 100 100 100 76 44 31 56 100 100 75 76 55 40 29 30 38 59 72 67 66 65 77 73 71 100 80 91 100 100 100 100 98 78 64 58 53 53 50 54 51
100 100 100 100 100 100 100 77 51 73 32 70 100 100 99 51 48 36 32 35 34 59 57 71 62 73 91 85 45 49 56 62 64 59 55 52 50 48 50 54 76 79 55 65
82 100 100 100 100 100 100 82 62 52 32 43 80 92 100 65 51 42 36 35 33 30 37 55 60 58 62 72 56 50 49 56 64 75 65 64 68 72 89 94 81 88 99 100
75 81 93 100 100 100 100 95 79 38 30 44 48 55 100 96 51 54 41 37 37 42 35 27 49 60 80 84 72 71 72 59 72 79 74 90 94 100 95 76 87 94 98 98
72 51 64 90 94 100 100 100 87 62 35 74 63 92 100 100 67 55 54 40 37 40 38 33 29 22 53 78 100 91 56 60 100 100 100 100 100 100 98 100 99 100 100 100
55 46 48 78 76 100 100 100 90 80 52 76 87 88 53 100 70 53 59 49 41 37 38 33 36 39 24 37 66 60 62 76 86 87 100 100 100 100 99 100 100 100 100 100
54 54 50 66 96 98 100 100 97 89 52 47 100 90 40 99 100 83 48 58 42 37 32 37 34 36 33 29 32 41 63 100 92 98 97 100 100 100 100 100 100 100 100 100
64 49 53 96 100 100 100 100 100 84 67 37 100 100 77 39 68 100 59 62 49 43 37 37 39 36 36 32 35 38 40 53 68 73 78 72 70 74 72 78 100 99 80 62
78 63 63 88 100 100 100 100 97 84 80 42 75 100 100 48 83 100 99 58 60 48 41 36 39 46 40 38 36 36 37 52 68 60 66 68 66 65 68 60 56 52 50 56
100 90 76 77 100 100 100 100 100 100 77 64 58 100 100 44 95 100 100 70 64 54 42 38 36 42 47 65 75 67 61 64 58 64 65 50 47 46 42 40 38 34 33 36
90 96 98 91 100 88 100 100 100 100 93 64 90 100 100 54 51 89 100 80 66 58 45 41 37 40 49 67 64 56 69 65 60 42 46 47 44 42 42 44 48 52 51 45
80 66 81 97 100 100 100 100 100 100 100 66 73 99 99 88 46 49 100 97 80 59 55 44 40 41 41 46 56 68 65 65 56 57 55 50 61 71 76 76 70 67 68 71
62 64 68 77 90 100 100 100 100 100 100 76 58 84 99 99 79 65 100 96 97 72 60 47 46 40 43 44 52 53 52 58 58 51 55 62 66 69 68 70 66 65 68 71
60 72 43 66 74 90 100 100 100 100 100 99 78 64 79 98 82 85 98 73 68 94 73 56 51 48 42 50 60 61 56 63 57 53 52 54 57 63 73 64 67 72 73 75
40 56 53 42 56 63 88 100 100 100 100 94 79 65 100 100 94 72 52 71 100 100 97 73 58 53 50 50 53 65 67 74 67 69 66 61 60 64 60 68 71 72 71 76
21 33 41 29 44 64 73 78 91 100 100 95 83 70 95 79 75 62 47 50 76 65 100 91 66 57 55 49 53 70 79 88 85 92 88 73 72 62 63 65 68 73 73 77
20 22 23 22 38 50 62 81 80 83 86 88 82 92 100 100 98 68 59 48 47 64 100 100 91 71 55 56 56 58 82 88 98 100 100 100 79 72 74 71 70 67 73 79
18 18 22 23 29 38 51 57 64 69 66 66 71 82 100 100 100 88 64 49 65 80 95 100 100 80 70 58 59 57 65 78 93 100 100 96 85 88 90 89 89 80 81 83
19 28 24 30 53 44 49 50 51 58 64 77 70 81 95 100 100 81 59 53 58 69 100 100 97 83 83 64 56 62 56 66 79 95 97 94 90 94 98 99 96 95 86 91

GFSCGP_250_rhum_060.txt.gz
RH
100 100 98 100 91 86 37 38 28 41 96 68 38 49 32 29 45 71 96 100 82 69 66 55 55 79 76 66 54 43 54 88 100 100 100 100 100 100 100 100 100 100 98 100
100 100 99 100 100 100 71 49 48 27 80 38 37 48 46 32 46 53 63 59 63 94 90 65 57 65 87 87 72 54 40 48 79 100 100 100 100 100 100 100 100 100 100 100
100 99 99 100 100 100 96 53 56 38 25 46 33 42 43 46 33 61 76 92 83 100 79 86 61 55 78 100 87 100 78 58 44 54 81 100 100 100 100 100 100 100 100 100
74 88 90 72 100 97 100 86 66 71 57 34 34 38 61 48 48 31 91 96 100 100 96 81 69 60 70 99 100 98 91 86 91 82 84 60 72 98 96 100 100 100 100 100
100 100 100 100 100 100 100 100 74 52 64 58 37 36 89 39 46 38 32 54 82 93 91 70 61 87 75 91 100 81 95 89 100 100 100 100 100 100 100 100 100 100 100 100
92 95 99 100 100 97 100 100 88 65 57 70 32 30 59 86 45 47 37 34 39 52 56 51 55 54 70 84 100 100 99 86 100 100 100 100 100 97 95 100 100 100 100 100
92 100 88 68 100 100 94 83 90 100 76 80 39 35 31 100 60 48 45 36 34 36 46 45 47 49 63 83 89 100 100 81 62 67 72 70 67 54 79 97 97 100 100 100
83 95 89 88 68 52 81 95 96 100 100 72 54 44 28 39 87 56 48 42 37 38 34 33 49 54 58 73 97 85 99 99 100 80 87 100 100 100 100 97 86 74 68 66
94 100 100 75 69 67 97 92 100 98 100 81 65 44 27 28 69 96 54 46 42 38 34 34 31 53 65 63 68 89 72 73 89 100 98 91 77 77 75 71 56 55 57 55
100 100 100 100 79 72 57 66 100 99 100 100 78 58 37 30 33 68 90 43 44 45 38 38 42 44 52 50 58 68 81 74 58 57 66 65 65 74 85 87 81 74 65 56
99 95 68 97 100 100 89 63 100 100 96 100 100 68 42 42 25 41 100 58 38 47 41 39 40 41 40 39 49 55 60 60 66 60 57 65 84 98 100 100 58 100 97 98
100 100 100 100 100 100 88 66 71 79 87 100 100 74 54 45 33 35 86 100 60 38 41 39 36 39 36 39 39 43 50 57 63 98 100 100 100 96 85 100 68 100 100 100
100 97 99 100 97 85 88 96 88 66 92 80 100 83 66 38 35 42 38 83 100 49 42 38 36 35 38 37 43 40 42 49 88 100 100 100 100 100 95 100 100 100 99 100
96 81 76 89 98 91 86 81 76 64 70 74 86 100 80 53 34 28 59 36 100 86 44 50 40 34 32 34 35 45 45 51 100 100 100 100 100 100 100 100 100 100 100 100
100 100 94 88 94 86 88 80 71 60 67 95 100 100 88 63 51 40 30 49 94 100 72 38 45 39 36 33 34 36 44 66 88 100 100 100 100 94 100 100 100 100 100 100
97 86 96 96 92 94 82 82 74 65 64 84 100 100 80 66 57 48 32 44 69 100 100 69 40 44 42 37 34 37 42 64 87 96 100 100 100 100 100 100 100 100 100 100
90 84 76 86 100 100 85 75 71 72 75 96 100 100 88 73 71 62 41 43 35 65 96 100 51 50 46 42 38 34 30 47 67 79 89 88 100 100 99 96 100 88 68 61
86 96 89 99 100 93 95 82 85 80 100 100 100 100 100 86 86 66 49 57 50 34 52 96 99 74 52 44 42 40 42 34 31 43 63 66 64 65 53 49 52 48 48 54
47 68 75 78 81 70 80 100 99 83 100 100 100 100 100 100 84 76 78 91 65 45 54 77 92 100 79 61 46 52 61 58 47 46 42 40 45 48 50 51 50 53 58 57
32 46 49 40 38 48 79 98 100 97 100 100 100 100 100 100 95 80 72 81 68 40 48 54 76 58 54 82 64 57 58 51 42 42 44 40 41 45 48 48 45 45 48 49
22 28 28 32 27 37 78 98 100 93 99 100 100 100 100 100 100 88 68 61 96 86 62 51 38 56 54 93 92 75 50 44 46 49 42 45 40 39 42 49 51 55 49 50
18 20 26 31 42 34 50 79 94 83 92 100 100 100 100 100 90 80 88 80 93 93 66 63 68 39 37 51 76 75 75 68 57 52 54 55 59 60 60 57 59 67 72 60
14 20 26 30 36 42 39 44 68 75 100 100 99 100 100 100 100 100 100 89 100 100 79 51 52 65 40 40 48 100 100 90 82 76 63 56 56 54 59 61 63 64 70 55
13 21 52 40 76 72 49 37 38 59 86 98 94 100 100 100 100 100 99 100 100 100 85 76 99 77 67 51 46 76 91 96 100 99 99 80 61 67 63 67 84 81 70 56
17 20 78 91 66 82 58 29 27 44 57 78 84 99 99 94 96 100 100 100 99 97 100 97 98 97 77 64 68 82 94 99 100 82 74 99 83 77 83 98 99 98 83 68
16 13 17 30 25 22 26 24 26 36 48 52 60 73 92 97 86 92 100 96 91 85 97 90 97 100 92 81 71 76 91 100 100 96 73 93 94 72 73 93 92 86 68 71

GFSCGP_250_rhum_066.txt.gz
RH
40 97 100 100 92 100 100 100 90 48 94 79 48 51 46 28 28 28 36 32 25 25 47 50 50 53 41 30 31 61 74 80 86 90 100 92 80 86 86 100 92 84 89 91
52 95 100 78 82 100 100 100 96 68 100 100 83 54 59 39 32 30 31 37 30 23 27 53 54 60 53 43 45 48 48 58 72 74 83 72 73 70 61 74 76 86 87 98
52 96 100 92 82 100 100 100 82 60 67 100 100 84 67 62 50 32 30 29 30 27 24 26 42 67 65 79 68 72 73 49 43 52 54 58 54 57 50 54 79 86 94 96
56 57 80 69 66 100 100 93 100 63 71 57 100 100 56 59 70 45 32 31 28 28 25 25 25 41 48 55 70 72 76 78 56 48 46 43 46 46 46 54 61 74 75 81
75 83 70 70 63 61 100 100 100 97 64 100 100 83 47 82 64 56 40 35 31 27 26 24 26 32 47 44 49 59 82 80 92 74 53 51 42 32 38 50 51 72 95 98
98 100 91 92 83 63 99 100 100 91 78 100 100 60 68 100 75 59 51 42 35 34 28 25 26 27 33 42 45 48 60 95 97 100 92 70 63 58 79 66 84 96 100 100
100 100 100 100 98 74 80 100 90 89 99 100 100 57 97 100 82 68 58 53 42 35 35 30 29 26 27 34 43 45 48 82 97 92 86 100 95 88 84 86 97 80 98 100
99 100 100 100 100 100 100 94 72 91 100 90 59 64 100 97 96 74 70 69 46 40 37 43 28 31 29 29 34 49 51 55 89 80 62 58 78 98 100 100 100 100 98 96
97 88 100 100 100 100 100 100 98 73 64 64 66 77 100 95 100 89 89 83 69 53 40 37 35 31 31 32 31 37 51 62 71 100 87 74 79 77 74 75 77 76 86 95
100 100 100 100 100 99 68 74 62 67 81 95 79 86 100 100 100 100 98 90 69 53 47 35 32 38 35 31 32 32 39 51 64 91 96 100 88 93 100 100 100 100 100 100
100 100 100 100 100 100 100 97 90 84 90 58 44 90 100 100 99 100 100 96 79 68 60 46 35 34 41 31 33 35 34 38 50 59 84 95 86 79 86 96 92 98 99 98
62 92 100 100 93 86 90 100 85 58 62 54 39 78 100 100 100 100 100 100 85 75 64 54 42 35 35 33 29 34 35 35 40 57 68 93 84 80 86 93 97 83 76 100
90 51 48 56 52 70 92 55 47 28 38 35 74 100 100 97 90 100 100 100 100 94 88 73 49 41 36 59 33 29 33 36 41 54 59 69 96 83 73 83 77 62 84 100
100 100 100 100 79 54 63 59 34 63 73 83 80 100 100 100 100 99 100 100 99 99 100 95 60 48 47 44 50 36 29 32 37 42 53 46 45 61 65 60 57 70 83 90
94 96 100 100 100 100 100 100 100 100 100 100 100 99 100 100 100 100 100 100 100 92 100 100 89 60 52 46 39 44 35 29 30 34 44 50 56 50 66 64 60 55 73 81
90 84 77 100 99 100 100 100 100 94 100 100 100 100 100 100 100 100 100 100 93 100 87 100 100 87 56 54 43 33 42 33 34 32 30 38 50 63 80 87 90 88 89 96
94 96 96 93 94 89 99 100 100 100 99 100 100 100 100 100 100 100 100 100 98 87 95 100 100 100 69 54 54 44 39 41 47 47 34 38 37 53 67 94 100 100 100 100
69 73 88 91 93 90 94 100 100 100 100 100 100 100 100 89 85 80 76 69 64 80 90 100 100 100 91 62 64 72 47 35 34 39 42 42 43 51 47 37 38 48 54 54
41 58 62 64 88 91 100 100 100 100 100 100 98 100 100 91 99 90 90 87 78 74 77 100 100 100 100 67 70 57 62 63 53 60 59 40 43 64 60 46 51 45 41 42
31 30 31 33 31 50 95 100 100 88 87 100 96 99 97 94 78 78 100 100 92 73 74 100 100 100 100 90 75 79 68 80 86 78 71 81 60 54 43 51 65 84 80 62
27 26 28 27 27 31 38 56 65 67 76 77 80 88 91 98 100 100 95 95 91 78 82 88 100 100 100 99 80 97 91 84 86 82 54 67 90 70 56 59 56 74 91 97
23 23 23 22 23 28 32 31 28 36 47 59 62 69 77 87 97 100 100 98 83 74 86 80 100 100 100 100 100 99 97 97 82 95 92 77 84 76 71 82 72 74 71 78
18 16 14 16 19 21 23 23 22 25 31 32 36 42 56 82 100 100 100 100 100 100 100 97 94 98 100 100 100 100 100 96 85 69 91 84 94 100 100 100 100 100 100 94
18 18 16 13 15 13 14 18 22 18 21 28 34 43 50 63 85 100 100 100 100 100 100 100 100 100 100 100 100 100 100 100 100 87 97 87 99 100 100 100 100 100 98 99
26 19 18 17 17 13 17 12 13 17 19 24 28 42 52 54 66 91 100 100 100 100 100 98 100 100 100 100 100 100 100 100 100 95 99 100 100 100 100 100 100 100 100 99
38 25 19 19 18 17 24 13 12 14 17 21 23 28 34 38 44 46 54 68 79 86 92 88 100 98 100 100 100 100 100 100 100 100 100 100 100 100 100 100 100 100 100 97